Wetterdaten: Dienstag, 17.11.2009
Datum Zeit Temp. Innen Temp. Aussen UV X Diff Temp. Feuchte Inne Feuchte Auss Sonnenschein Luftdruck Regen ab 0,1 Wind Sonnenschein Windben
17.11.2009 00:02 16,2 C 10,7 C 0,0 UV-I 0,0 C 62 % 86 % 0 % 1008,6 hPa 0,0 l/m 0,0 km/h (0 Bft) 0 min 2,6 km/h (1 Bft)
17.11.2009 00:04 16,2 C 10,7 C 0,0 UV-I 0,0 C 62 % 86 % 0 % 1008,6 hPa 0,0 l/m 0,0 km/h (0 Bft) 0 min 0,0 km/h (0 Bft)
17.11.2009 00:06 16,2 C 10,7 C 0,0 UV-I 0,0 C 63 % 86 % 0 % 1008,6 hPa 0,0 l/m 0,0 km/h (0 Bft) 0 min 0,0 km/h (0 Bft)
17.11.2009 00:08 16,2 C 10,7 C 0,0 UV-I 0,0 C 63 % 86 % 0 % 1008,6 hPa 0,0 l/m 0,0 km/h (0 Bft) 0 min 0,0 km/h (0 Bft)
17.11.2009 00:10 16,2 C 10,7 C 0,0 UV-I 0,0 C 63 % 86 % 0 % 1008,6 hPa 0,0 l/m 0,2 km/h (0 Bft) 0 min 3,8 km/h (1 Bft)
17.11.2009 00:12 16,2 C 10,7 C 0,0 UV-I 0,0 C 63 % 86 % 0 % 1008,6 hPa 0,0 l/m 0,5 km/h (0 Bft) 0 min 3,8 km/h (1 Bft)
17.11.2009 00:14 16,2 C 10,6 C 0,0 UV-I 0,0 C 63 % 86 % 0 % 1008,4 hPa 0,0 l/m 0,7 km/h (0 Bft) 0 min 2,9 km/h (1 Bft)
17.11.2009 00:16 16,2 C 10,6 C 0,0 UV-I 0,0 C 62 % 86 % 0 % 1008,4 hPa 0,0 l/m 0,7 km/h (0 Bft) 0 min 2,9 km/h (1 Bft)
17.11.2009 00:18 16,2 C 10,7 C 0,0 UV-I 0,0 C 63 % 86 % 0 % 1008,4 hPa 0,0 l/m 1,0 km/h (0 Bft) 0 min 3,6 km/h (1 Bft)
17.11.2009 00:20 16,2 C 10,7 C 0,0 UV-I 0,0 C 62 % 86 % 0 % 1008,4 hPa 0,0 l/m 1,2 km/h (1 Bft) 0 min 3,6 km/h (1 Bft)
17.11.2009 00:22 16,2 C 10,7 C 0,0 UV-I 0,0 C 62 % 86 % 0 % 1008,4 hPa 0,0 l/m 1,0 km/h (0 Bft) 0 min 4,6 km/h (1 Bft)
17.11.2009 00:24 16,2 C 10,6 C 0,0 UV-I 0,0 C 63 % 86 % 0 % 1008,4 hPa 0,0 l/m 1,2 km/h (1 Bft) 0 min 4,1 km/h (1 Bft)
17.11.2009 00:26 16,2 C 10,6 C 0,0 UV-I 0,0 C 63 % 86 % 0 % 1008,4 hPa 0,0 l/m 1,4 km/h (1 Bft) 0 min 4,1 km/h (1 Bft)
17.11.2009 00:28 16,2 C 10,5 C 0,0 UV-I 0,0 C 62 % 87 % 0 % 1008,4 hPa 0,0 l/m 1,4 km/h (1 Bft) 0 min 2,4 km/h (1 Bft)
17.11.2009 00:30 16,2 C 10,5 C 0,0 UV-I 0,0 C 63 % 87 % 0 % 1008,4 hPa 0,0 l/m 1,2 km/h (1 Bft) 0 min 0,0 km/h (0 Bft)
17.11.2009 00:32 16,2 C 10,6 C 0,0 UV-I 0,0 C 63 % 87 % 0 % 1008,4 hPa 0,0 l/m 1,4 km/h (1 Bft) 0 min 5,3 km/h (1 Bft)
17.11.2009 00:34 16,2 C 10,7 C 0,0 UV-I 0,0 C 63 % 87 % 0 % 1009,1 hPa 0,0 l/m 1,9 km/h (1 Bft) 0 min 3,4 km/h (1 Bft)
17.11.2009 00:36 16,2 C 10,6 C 0,0 UV-I 0,0 C 63 % 87 % 0 % 1009,1 hPa 0,0 l/m 1,4 km/h (1 Bft) 0 min 3,4 km/h (1 Bft)
17.11.2009 00:38 16,1 C 10,7 C 0,0 UV-I 0,0 C 63 % 87 % 0 % 1009,1 hPa 0,0 l/m 1,7 km/h (1 Bft) 0 min 4,3 km/h (1 Bft)
17.11.2009 00:42 16,1 C 10,8 C 0,0 UV-I 0,0 C 63 % 87 % 0 % 1009,1 hPa 0,0 l/m 1,9 km/h (1 Bft) 0 min 9,9 km/h (2 Bft)
17.11.2009 00:44 16,1 C 10,9 C 0,0 UV-I 0,0 C 63 % 86 % 0 % 1009,1 hPa 0,0 l/m 2,6 km/h (1 Bft) 0 min 8,9 km/h (2 Bft)
17.11.2009 00:46 16,1 C 11,0 C 0,0 UV-I 0,0 C 63 % 86 % 0 % 1009,1 hPa 0,0 l/m 2,9 km/h (1 Bft) 0 min 12,8 km/h (3 Bft)
17.11.2009 00:48 16,1 C 11,2 C 0,0 UV-I 0,0 C 62 % 85 % 0 % 1009,1 hPa 0,0 l/m 3,6 km/h (1 Bft) 0 min 12,8 km/h (3 Bft)
17.11.2009 00:50 16,1 C 11,3 C 0,0 UV-I 0,0 C 62 % 84 % 0 % 1009,1 hPa 0,0 l/m 4,1 km/h (1 Bft) 0 min 4,3 km/h (1 Bft)
17.11.2009 00:52 15,9 C 11,3 C 0,0 UV-I 0,0 C 62 % 83 % 0 % 1009,1 hPa 0,0 l/m 4,8 km/h (1 Bft) 0 min 13,2 km/h (3 Bft)
17.11.2009 00:54 15,9 C 11,5 C 0,0 UV-I 0,0 C 62 % 83 % 0 % 1008,8 hPa 0,0 l/m 4,8 km/h (1 Bft) 0 min 13,2 km/h (3 Bft)
17.11.2009 00:56 15,9 C 11,5 C 0,0 UV-I 0,0 C 62 % 83 % 0 % 1008,8 hPa 0,0 l/m 4,6 km/h (1 Bft) 0 min 3,4 km/h (1 Bft)
17.11.2009 00:58 15,9 C 11,5 C 0,0 UV-I 0,0 C 62 % 83 % 0 % 1008,8 hPa 0,0 l/m 4,1 km/h (1 Bft) 0 min 6,5 km/h (2 Bft)
17.11.2009 01:00 16,0 C 11,6 C 0,0 UV-I 0,0 C 62 % 82 % 0 % 1008,8 hPa 0,0 l/m 4,1 km/h (1 Bft) 0 min 6,5 km/h (2 Bft)
17.11.2009 01:04 16,0 C 11,6 C 0,0 UV-I 0,0 C 62 % 82 % 0 % 1008,8 hPa 0,0 l/m 3,8 km/h (1 Bft) 0 min 13,2 km/h (3 Bft)
17.11.2009 01:06 16,0 C 11,6 C 0,0 UV-I 0,0 C 62 % 82 % 0 % 1008,8 hPa 0,0 l/m 4,1 km/h (1 Bft) 0 min 6,7 km/h (2 Bft)
17.11.2009 01:08 16,0 C 11,7 C 0,0 UV-I 0,0 C 62 % 82 % 0 % 1008,8 hPa 0,0 l/m 4,1 km/h (1 Bft) 0 min 6,3 km/h (2 Bft)
17.11.2009 01:10 16,0 C 11,9 C 0,0 UV-I 0,0 C 62 % 82 % 0 % 1008,8 hPa 0,0 l/m 4,3 km/h (1 Bft) 0 min 6,7 km/h (2 Bft)
17.11.2009 01:12 16,0 C 11,8 C 0,0 UV-I 0,0 C 62 % 81 % 0 % 1008,8 hPa 0,0 l/m 4,8 km/h (1 Bft) 0 min 10,8 km/h (2 Bft)
17.11.2009 01:14 16,0 C 11,9 C 0,0 UV-I 0,0 C 62 % 81 % 0 % 1008,6 hPa 0,0 l/m 5,3 km/h (1 Bft) 0 min 10,8 km/h (2 Bft)
17.11.2009 01:16 16,0 C 11,9 C 0,0 UV-I 0,0 C 62 % 81 % 0 % 1008,6 hPa 0,0 l/m 5,5 km/h (1 Bft) 0 min 9,9 km/h (2 Bft)
17.11.2009 01:18 16,0 C 12,0 C 0,0 UV-I 0,0 C 62 % 81 % 0 % 1008,6 hPa 0,0 l/m 4,8 km/h (1 Bft) 0 min 5,5 km/h (1 Bft)
17.11.2009 01:20 16,0 C 11,9 C 0,0 UV-I 0,0 C 62 % 81 % 0 % 1008,6 hPa 0,0 l/m 4,6 km/h (1 Bft) 0 min 4,6 km/h (1 Bft)
17.11.2009 01:22 16,0 C 11,9 C 0,0 UV-I 0,0 C 62 % 81 % 0 % 1008,6 hPa 0,0 l/m 3,6 km/h (1 Bft) 0 min 14,0 km/h (3 Bft)
17.11.2009 01:24 16,0 C 11,9 C 0,0 UV-I 0,0 C 62 % 81 % 0 % 1008,6 hPa 0,0 l/m 3,4 km/h (1 Bft) 0 min 3,8 km/h (1 Bft)
17.11.2009 01:26 16,0 C 12,0 C 0,0 UV-I 0,0 C 62 % 81 % 0 % 1008,6 hPa 0,0 l/m 2,9 km/h (1 Bft) 0 min 3,8 km/h (1 Bft)
17.11.2009 01:28 15,8 C 12,1 C 0,0 UV-I 0,0 C 61 % 80 % 0 % 1008,6 hPa 0,0 l/m 3,4 km/h (1 Bft) 0 min 7,2 km/h (2 Bft)
17.11.2009 01:30 16,0 C 12,0 C 0,0 UV-I 0,0 C 61 % 80 % 0 % 1008,6 hPa 0,0 l/m 3,1 km/h (1 Bft) 0 min 7,2 km/h (2 Bft)
17.11.2009 01:32 15,8 C 12,1 C 0,0 UV-I 0,0 C 61 % 79 % 0 % 1008,6 hPa 0,0 l/m 4,1 km/h (1 Bft) 0 min 8,9 km/h (2 Bft)
17.11.2009 01:34 15,8 C 12,1 C 0,0 UV-I 0,0 C 61 % 79 % 0 % 1008,4 hPa 0,0 l/m 4,3 km/h (1 Bft) 0 min 8,9 km/h (2 Bft)
17.11.2009 01:36 15,8 C 12,1 C 0,0 UV-I 0,0 C 61 % 79 % 0 % 1008,4 hPa 0,0 l/m 4,3 km/h (1 Bft) 0 min 8,7 km/h (2 Bft)
17.11.2009 01:38 15,8 C 12,1 C 0,0 UV-I 0,0 C 61 % 79 % 0 % 1008,4 hPa 0,0 l/m 3,8 km/h (1 Bft) 0 min 4,3 km/h (1 Bft)
17.11.2009 01:40 16,0 C 12,1 C 0,0 UV-I 0,0 C 61 % 79 % 0 % 1008,4 hPa 0,0 l/m 3,6 km/h (1 Bft) 0 min 5,8 km/h (2 Bft)
17.11.2009 01:42 15,8 C 12,1 C 0,0 UV-I 0,0 C 61 % 78 % 0 % 1008,4 hPa 0,0 l/m 3,4 km/h (1 Bft) 0 min 5,8 km/h (2 Bft)
17.11.2009 01:44 15,8 C 12,2 C 0,0 UV-I 0,0 C 61 % 78 % 0 % 1008,4 hPa 0,0 l/m 2,9 km/h (1 Bft) 0 min 3,4 km/h (1 Bft)
17.11.2009 01:46 15,9 C 12,3 C 0,0 UV-I 0,0 C 61 % 77 % 0 % 1008,4 hPa 0,0 l/m 2,9 km/h (1 Bft) 0 min 3,4 km/h (1 Bft)
17.11.2009 01:48 15,8 C 12,3 C 0,0 UV-I 0,0 C 61 % 77 % 0 % 1008,4 hPa 0,0 l/m 3,1 km/h (1 Bft) 0 min 6,7 km/h (2 Bft)
17.11.2009 01:50 15,8 C 12,3 C 0,0 UV-I 0,0 C 61 % 77 % 0 % 1008,4 hPa 0,0 l/m 3,4 km/h (1 Bft) 0 min 6,7 km/h (2 Bft)
17.11.2009 01:52 15,9 C 12,3 C 0,0 UV-I 0,0 C 61 % 77 % 0 % 1008,4 hPa 0,0 l/m 3,4 km/h (1 Bft) 0 min 5,3 km/h (1 Bft)
17.11.2009 01:54 15,8 C 12,3 C 0,0 UV-I 0,0 C 61 % 77 % 0 % 1008,4 hPa 0,0 l/m 3,4 km/h (1 Bft) 0 min 5,3 km/h (1 Bft)
17.11.2009 01:56 15,9 C 12,2 C 0,0 UV-I 0,0 C 61 % 77 % 0 % 1008,4 hPa 0,0 l/m 3,4 km/h (1 Bft) 0 min 6,0 km/h (2 Bft)
17.11.2009 01:58 15,9 C 12,2 C 0,0 UV-I 0,0 C 61 % 77 % 0 % 1008,4 hPa 0,0 l/m 3,8 km/h (1 Bft) 0 min 13,0 km/h (3 Bft)
17.11.2009 02:00 15,9 C 12,3 C 0,0 UV-I 0,0 C 61 % 77 % 0 % 1008,4 hPa 0,0 l/m 4,3 km/h (1 Bft) 0 min 13,0 km/h (3 Bft)
17.11.2009 02:02 15,9 C 12,3 C 0,0 UV-I 0,0 C 61 % 76 % 0 % 1008,4 hPa 0,0 l/m 4,6 km/h (1 Bft) 0 min 6,3 km/h (2 Bft)
17.11.2009 02:04 15,8 C 12,3 C 0,0 UV-I 0,0 C 61 % 76 % 0 % 1008,4 hPa 0,0 l/m 4,8 km/h (1 Bft) 0 min 3,1 km/h (1 Bft)
17.11.2009 02:06 15,9 C 12,3 C 0,0 UV-I 0,0 C 61 % 76 % 0 % 1008,4 hPa 0,0 l/m 4,8 km/h (1 Bft) 0 min 6,5 km/h (2 Bft)
17.11.2009 02:08 15,9 C 12,3 C 0,0 UV-I 0,0 C 61 % 76 % 0 % 1008,4 hPa 0,0 l/m 4,6 km/h (1 Bft) 0 min 6,5 km/h (2 Bft)
17.11.2009 02:10 15,9 C 12,3 C 0,0 UV-I 0,0 C 61 % 76 % 0 % 1008,4 hPa 0,0 l/m 4,3 km/h (1 Bft) 0 min 8,7 km/h (2 Bft)
17.11.2009 02:12 15,9 C 12,4 C 0,0 UV-I 0,0 C 61 % 75 % 0 % 1008,4 hPa 0,0 l/m 4,6 km/h (1 Bft) 0 min 9,4 km/h (2 Bft)
17.11.2009 02:14 15,9 C 12,4 C 0,0 UV-I 0,0 C 61 % 75 % 0 % 1008,1 hPa 0,0 l/m 4,6 km/h (1 Bft) 0 min 13,5 km/h (3 Bft)
17.11.2009 02:16 15,9 C 12,5 C 0,0 UV-I 0,0 C 60 % 75 % 0 % 1008,1 hPa 0,0 l/m 4,8 km/h (1 Bft) 0 min 13,5 km/h (3 Bft)
17.11.2009 02:18 15,9 C 12,5 C 0,0 UV-I 0,0 C 60 % 74 % 0 % 1008,1 hPa 0,0 l/m 5,1 km/h (1 Bft) 0 min 4,8 km/h (1 Bft)
17.11.2009 02:20 15,9 C 12,4 C 0,0 UV-I 0,0 C 60 % 75 % 0 % 1008,1 hPa 0,0 l/m 4,8 km/h (1 Bft) 0 min 4,8 km/h (1 Bft)
17.11.2009 02:22 15,9 C 12,4 C 0,0 UV-I 0,0 C 60 % 74 % 0 % 1008,1 hPa 0,0 l/m 4,8 km/h (1 Bft) 0 min 8,4 km/h (2 Bft)
17.11.2009 02:24 15,9 C 12,4 C 0,0 UV-I 0,0 C 60 % 73 % 0 % 1008,1 hPa 0,0 l/m 5,1 km/h (1 Bft) 0 min 4,6 km/h (1 Bft)
17.11.2009 02:26 15,9 C 12,5 C 0,0 UV-I 0,0 C 60 % 73 % 0 % 1008,1 hPa 0,0 l/m 4,8 km/h (1 Bft) 0 min 9,9 km/h (2 Bft)
17.11.2009 02:28 15,9 C 12,5 C 0,0 UV-I 0,0 C 60 % 73 % 0 % 1008,1 hPa 0,0 l/m 5,5 km/h (1 Bft) 0 min 9,9 km/h (2 Bft)
17.11.2009 02:30 15,9 C 12,4 C 0,0 UV-I 0,0 C 60 % 74 % 0 % 1008,1 hPa 0,0 l/m 5,1 km/h (1 Bft) 0 min 5,5 km/h (1 Bft)
17.11.2009 02:32 15,9 C 12,4 C 0,0 UV-I 0,0 C 60 % 74 % 0 % 1008,1 hPa 0,0 l/m 5,1 km/h (1 Bft) 0 min 5,1 km/h (1 Bft)
17.11.2009 02:34 15,8 C 12,4 C 0,0 UV-I 0,0 C 60 % 73 % 0 % 1008,4 hPa 0,0 l/m 4,6 km/h (1 Bft) 0 min 7,5 km/h (2 Bft)
17.11.2009 02:36 15,9 C 12,4 C 0,0 UV-I 0,0 C 60 % 73 % 0 % 1008,4 hPa 0,0 l/m 4,1 km/h (1 Bft) 0 min 7,5 km/h (2 Bft)
17.11.2009 02:38 15,9 C 12,4 C 0,0 UV-I 0,0 C 60 % 73 % 0 % 1008,4 hPa 0,0 l/m 3,4 km/h (1 Bft) 0 min 3,6 km/h (1 Bft)
17.11.2009 02:40 15,9 C 12,4 C 0,0 UV-I 0,0 C 60 % 73 % 0 % 1008,4 hPa 0,0 l/m 3,8 km/h (1 Bft) 0 min 7,5 km/h (2 Bft)
17.11.2009 02:42 15,9 C 12,5 C 0,0 UV-I 0,0 C 59 % 73 % 0 % 1008,4 hPa 0,0 l/m 3,8 km/h (1 Bft) 0 min 7,5 km/h (2 Bft)
17.11.2009 02:44 15,9 C 12,5 C 0,0 UV-I 0,0 C 59 % 73 % 0 % 1008,4 hPa 0,0 l/m 3,6 km/h (1 Bft) 0 min 5,5 km/h (1 Bft)
17.11.2009 02:46 15,9 C 12,5 C 0,0 UV-I 0,0 C 59 % 73 % 0 % 1008,4 hPa 0,0 l/m 3,4 km/h (1 Bft) 0 min 5,5 km/h (1 Bft)
17.11.2009 02:48 15,9 C 12,5 C 0,0 UV-I 0,0 C 59 % 73 % 0 % 1008,4 hPa 0,0 l/m 3,1 km/h (1 Bft) 0 min 6,7 km/h (2 Bft)
17.11.2009 02:50 15,8 C 12,5 C 0,0 UV-I 0,0 C 59 % 73 % 0 % 1008,4 hPa 0,0 l/m 3,4 km/h (1 Bft) 0 min 6,5 km/h (2 Bft)
17.11.2009 02:52 15,9 C 12,5 C 0,0 UV-I 0,0 C 59 % 73 % 0 % 1008,4 hPa 0,0 l/m 3,1 km/h (1 Bft) 0 min 3,4 km/h (1 Bft)
17.11.2009 02:54 15,9 C 12,5 C 0,0 UV-I 0,0 C 59 % 73 % 0 % 1008,9 hPa 0,0 l/m 3,4 km/h (1 Bft) 0 min 7,5 km/h (2 Bft)
17.11.2009 02:56 15,8 C 12,4 C 0,0 UV-I 0,0 C 59 % 73 % 0 % 1008,9 hPa 0,0 l/m 3,4 km/h (1 Bft) 0 min 7,5 km/h (2 Bft)
17.11.2009 02:58 15,9 C 12,5 C 0,0 UV-I 0,0 C 59 % 73 % 0 % 1008,9 hPa 0,0 l/m 3,6 km/h (1 Bft) 0 min 6,0 km/h (2 Bft)
17.11.2009 03:00 15,9 C 12,5 C 0,0 UV-I 0,0 C 59 % 73 % 0 % 1008,9 hPa 0,0 l/m 3,4 km/h (1 Bft) 0 min 5,5 km/h (1 Bft)
17.11.2009 03:02 15,9 C 12,5 C 0,0 UV-I 0,0 C 59 % 73 % 0 % 1008,9 hPa 0,0 l/m 3,4 km/h (1 Bft) 0 min 4,3 km/h (1 Bft)
17.11.2009 03:04 15,9 C 12,5 C 0,0 UV-I 0,0 C 59 % 73 % 0 % 1008,9 hPa 0,0 l/m 3,4 km/h (1 Bft) 0 min 4,3 km/h (1 Bft)
17.11.2009 03:06 15,9 C 12,5 C 0,0 UV-I 0,0 C 59 % 72 % 0 % 1008,9 hPa 0,0 l/m 2,9 km/h (1 Bft) 0 min 4,3 km/h (1 Bft)
17.11.2009 03:08 15,9 C 12,5 C 0,0 UV-I 0,0 C 59 % 72 % 0 % 1008,9 hPa 0,0 l/m 2,6 km/h (1 Bft) 0 min 2,6 km/h (1 Bft)
17.11.2009 03:10 15,9 C 12,5 C 0,0 UV-I 0,0 C 59 % 73 % 0 % 1008,9 hPa 0,0 l/m 2,6 km/h (1 Bft) 0 min 3,8 km/h (1 Bft)
17.11.2009 03:12 15,9 C 12,5 C 0,0 UV-I 0,0 C 59 % 73 % 0 % 1008,9 hPa 0,0 l/m 2,6 km/h (1 Bft) 0 min 6,3 km/h (2 Bft)
17.11.2009 03:14 15,9 C 12,4 C 0,0 UV-I 0,0 C 59 % 73 % 0 % 1009,1 hPa 0,0 l/m 2,4 km/h (1 Bft) 0 min 6,3 km/h (2 Bft)
17.11.2009 03:16 15,9 C 12,4 C 0,0 UV-I 0,0 C 59 % 73 % 0 % 1009,1 hPa 0,0 l/m 2,2 km/h (1 Bft) 0 min 3,6 km/h (1 Bft)
17.11.2009 03:18 15,9 C 12,4 C 0,0 UV-I 0,0 C 59 % 73 % 0 % 1009,1 hPa 0,0 l/m 2,4 km/h (1 Bft) 0 min 3,1 km/h (1 Bft)
17.11.2009 03:20 15,9 C 12,5 C 0,0 UV-I 0,0 C 59 % 73 % 0 % 1009,1 hPa 0,0 l/m 2,4 km/h (1 Bft) 0 min 4,1 km/h (1 Bft)
17.11.2009 03:22 15,9 C 12,4 C 0,0 UV-I 0,0 C 59 % 73 % 0 % 1009,1 hPa 0,0 l/m 2,2 km/h (1 Bft) 0 min 4,1 km/h (1 Bft)
17.11.2009 03:24 15,9 C 12,4 C 0,0 UV-I 0,0 C 59 % 73 % 0 % 1009,1 hPa 0,0 l/m 2,2 km/h (1 Bft) 0 min 4,8 km/h (1 Bft)
17.11.2009 03:26 15,8 C 12,4 C 0,0 UV-I 0,0 C 59 % 74 % 0 % 1009,1 hPa 0,0 l/m 1,9 km/h (1 Bft) 0 min 4,8 km/h (1 Bft)
17.11.2009 03:28 15,9 C 12,4 C 0,0 UV-I 0,0 C 59 % 74 % 0 % 1009,1 hPa 0,0 l/m 1,7 km/h (1 Bft) 0 min 2,9 km/h (1 Bft)
17.11.2009 03:30 15,9 C 12,4 C 0,0 UV-I 0,0 C 59 % 74 % 0 % 1009,1 hPa 0,0 l/m 1,7 km/h (1 Bft) 0 min 4,6 km/h (1 Bft)
17.11.2009 03:34 15,9 C 12,4 C 0,0 UV-I 0,0 C 59 % 74 % 0 % 1008,8 hPa 0,0 l/m 1,9 km/h (1 Bft) 0 min 4,6 km/h (1 Bft)
17.11.2009 03:36 15,9 C 12,4 C 0,0 UV-I 0,0 C 59 % 74 % 0 % 1008,8 hPa 0,0 l/m 2,2 km/h (1 Bft) 0 min 4,3 km/h (1 Bft)
17.11.2009 03:38 15,9 C 12,4 C 0,0 UV-I 0,0 C 59 % 74 % 0 % 1008,8 hPa 0,0 l/m 2,2 km/h (1 Bft) 0 min 5,1 km/h (1 Bft)
17.11.2009 03:40 15,9 C 12,4 C 0,0 UV-I 0,0 C 59 % 75 % 0 % 1008,8 hPa 0,0 l/m 2,2 km/h (1 Bft) 0 min 5,8 km/h (2 Bft)
17.11.2009 03:42 15,9 C 12,4 C 0,0 UV-I 0,0 C 59 % 75 % 0 % 1008,8 hPa 0,0 l/m 2,2 km/h (1 Bft) 0 min 3,1 km/h (1 Bft)
17.11.2009 03:44 15,9 C 12,3 C 0,0 UV-I 0,0 C 59 % 75 % 0 % 1008,8 hPa 0,0 l/m 1,9 km/h (1 Bft) 0 min 3,1 km/h (1 Bft)
17.11.2009 03:46 15,9 C 12,3 C 0,0 UV-I 0,0 C 59 % 75 % 0 % 1008,8 hPa 0,0 l/m 1,7 km/h (1 Bft) 0 min 3,1 km/h (1 Bft)
17.11.2009 03:48 15,9 C 12,3 C 0,0 UV-I 0,0 C 59 % 75 % 0 % 1008,8 hPa 0,0 l/m 1,2 km/h (1 Bft) 0 min 0,0 km/h (0 Bft)
17.11.2009 03:52 15,9 C 12,2 C 0,0 UV-I 0,0 C 59 % 75 % 0 % 1008,8 hPa 0,0 l/m 1,0 km/h (0 Bft) 0 min 2,4 km/h (1 Bft)
17.11.2009 03:54 15,9 C 12,3 C 0,0 UV-I 0,0 C 59 % 76 % 0 % 1008,8 hPa 0,0 l/m 1,0 km/h (0 Bft) 0 min 0,0 km/h (0 Bft)
17.11.2009 03:56 15,9 C 12,3 C 0,0 UV-I 0,0 C 59 % 76 % 0 % 1008,8 hPa 0,0 l/m 0,7 km/h (0 Bft) 0 min 3,1 km/h (1 Bft)
17.11.2009 03:58 15,8 C 12,3 C 0,0 UV-I 0,0 C 59 % 76 % 0 % 1008,8 hPa 0,0 l/m 1,0 km/h (0 Bft) 0 min 3,8 km/h (1 Bft)
17.11.2009 04:00 15,9 C 12,3 C 0,0 UV-I 0,0 C 59 % 76 % 0 % 1008,8 hPa 0,0 l/m 0,7 km/h (0 Bft) 0 min 3,8 km/h (1 Bft)
17.11.2009 04:02 15,9 C 12,3 C 0,0 UV-I 0,0 C 59 % 76 % 0 % 1008,8 hPa 0,0 l/m 1,0 km/h (0 Bft) 0 min 3,4 km/h (1 Bft)
17.11.2009 04:04 15,9 C 12,3 C 0,0 UV-I 0,0 C 59 % 76 % 0 % 1008,8 hPa 0,0 l/m 1,2 km/h (1 Bft) 0 min 2,4 km/h (1 Bft)
17.11.2009 04:06 15,8 C 12,2 C 0,0 UV-I 0,0 C 59 % 77 % 0 % 1008,8 hPa 0,0 l/m 1,2 km/h (1 Bft) 0 min 0,0 km/h (0 Bft)
17.11.2009 04:08 15,9 C 12,1 C 0,0 UV-I 0,0 C 59 % 77 % 0 % 1008,8 hPa 0,0 l/m 1,0 km/h (0 Bft) 0 min 2,4 km/h (1 Bft)
17.11.2009 04:09 15,9 C 12,1 C 0,0 UV-I 0,0 C 59 % 77 % 0 % 1008,8 hPa 0,0 l/m 1,2 km/h (1 Bft) 0 min 7,0 km/h (2 Bft)
17.11.2009 04:14 15,8 C 12,1 C 0,0 UV-I 0,0 C 59 % 77 % 0 % 1008,8 hPa 0,0 l/m 1,4 km/h (1 Bft) 0 min 3,6 km/h (1 Bft)
17.11.2009 04:15 15,8 C 12,1 C 0,0 UV-I 0,0 C 59 % 77 % 0 % 1008,8 hPa 0,0 l/m 2,2 km/h (1 Bft) 0 min 5,5 km/h (1 Bft)
17.11.2009 04:16 15,8 C 12,1 C 0,0 UV-I 0,0 C 59 % 77 % 0 % 1008,8 hPa 0,0 l/m 2,2 km/h (1 Bft) 0 min 5,5 km/h (1 Bft)
17.11.2009 04:18 15,8 C 12,1 C 0,0 UV-I 0,0 C 60 % 77 % 0 % 1008,8 hPa 0,0 l/m 2,4 km/h (1 Bft) 0 min 5,5 km/h (1 Bft)
17.11.2009 04:20 15,8 C 12,0 C 0,0 UV-I 0,0 C 60 % 78 % 0 % 1008,8 hPa 0,0 l/m 2,4 km/h (1 Bft) 0 min 0,0 km/h (0 Bft)
17.11.2009 04:22 15,8 C 12,0 C 0,0 UV-I 0,0 C 60 % 78 % 0 % 1008,8 hPa 0,0 l/m 1,7 km/h (1 Bft) 0 min 0,0 km/h (0 Bft)
17.11.2009 04:24 15,8 C 12,0 C 0,0 UV-I 0,0 C 60 % 78 % 0 % 1008,8 hPa 0,0 l/m 1,4 km/h (1 Bft) 0 min 0,0 km/h (0 Bft)
17.11.2009 04:26 15,8 C 12,1 C 0,0 UV-I 0,0 C 60 % 78 % 0 % 1008,8 hPa 0,0 l/m 1,4 km/h (1 Bft) 0 min 8,4 km/h (2 Bft)
17.11.2009 04:28 15,8 C 12,0 C 0,0 UV-I 0,0 C 60 % 78 % 0 % 1008,8 hPa 0,0 l/m 1,4 km/h (1 Bft) 0 min 8,4 km/h (2 Bft)
17.11.2009 04:30 16,0 C 12,0 C 0,0 UV-I 0,0 C 60 % 79 % 0 % 1008,8 hPa 0,0 l/m 2,2 km/h (1 Bft) 0 min 7,7 km/h (2 Bft)
17.11.2009 04:32 15,8 C 12,0 C 0,0 UV-I 0,0 C 60 % 79 % 0 % 1008,8 hPa 0,0 l/m 2,6 km/h (1 Bft) 0 min 7,7 km/h (2 Bft)
17.11.2009 04:34 15,8 C 11,9 C 0,0 UV-I 0,0 C 60 % 79 % 0 % 1008,2 hPa 0,0 l/m 3,4 km/h (1 Bft) 0 min 4,8 km/h (1 Bft)
17.11.2009 04:36 16,0 C 11,9 C 0,0 UV-I 0,0 C 60 % 79 % 0 % 1008,2 hPa 0,0 l/m 3,6 km/h (1 Bft) 0 min 4,8 km/h (1 Bft)
17.11.2009 04:38 16,0 C 11,8 C 0,0 UV-I 0,0 C 60 % 79 % 0 % 1008,2 hPa 0,0 l/m 3,4 km/h (1 Bft) 0 min 2,4 km/h (1 Bft)
17.11.2009 04:40 16,0 C 11,8 C 0,0 UV-I 0,0 C 60 % 79 % 0 % 1008,2 hPa 0,0 l/m 2,6 km/h (1 Bft) 0 min 2,4 km/h (1 Bft)
17.11.2009 04:42 16,0 C 11,9 C 0,0 UV-I 0,0 C 60 % 80 % 0 % 1008,2 hPa 0,0 l/m 1,4 km/h (1 Bft) 0 min 0,0 km/h (0 Bft)
17.11.2009 04:44 16,0 C 11,9 C 0,0 UV-I 0,0 C 60 % 80 % 0 % 1008,2 hPa 0,0 l/m 1,2 km/h (1 Bft) 0 min 3,8 km/h (1 Bft)
17.11.2009 04:46 16,0 C 11,8 C 0,0 UV-I 0,0 C 60 % 80 % 0 % 1008,2 hPa 0,0 l/m 1,0 km/h (0 Bft) 0 min 3,8 km/h (1 Bft)
17.11.2009 04:48 16,0 C 11,7 C 0,0 UV-I 0,0 C 60 % 80 % 0 % 1008,2 hPa 0,0 l/m 1,2 km/h (1 Bft) 0 min 3,4 km/h (1 Bft)
17.11.2009 04:50 15,9 C 11,7 C 0,0 UV-I 0,0 C 60 % 80 % 0 % 1008,2 hPa 0,0 l/m 1,4 km/h (1 Bft) 0 min 3,8 km/h (1 Bft)
17.11.2009 04:52 15,9 C 11,7 C 0,0 UV-I 0,0 C 60 % 80 % 0 % 1008,2 hPa 0,0 l/m 1,4 km/h (1 Bft) 0 min 3,8 km/h (1 Bft)
17.11.2009 04:54 15,9 C 11,7 C 0,0 UV-I 0,0 C 60 % 80 % 0 % 1008,8 hPa 0,0 l/m 1,2 km/h (1 Bft) 0 min 0,0 km/h (0 Bft)
17.11.2009 04:56 15,9 C 11,7 C 0,0 UV-I 0,0 C 60 % 80 % 0 % 1008,8 hPa 0,0 l/m 1,2 km/h (1 Bft) 0 min 4,8 km/h (1 Bft)
17.11.2009 04:58 15,9 C 11,7 C 0,0 UV-I 0,0 C 60 % 80 % 0 % 1008,8 hPa 0,0 l/m 0,7 km/h (0 Bft) 0 min 4,8 km/h (1 Bft)
17.11.2009 05:00 15,9 C 11,7 C 0,0 UV-I 0,0 C 60 % 80 % 0 % 1008,8 hPa 0,0 l/m 0,7 km/h (0 Bft) 0 min 0,0 km/h (0 Bft)
17.11.2009 05:02 15,9 C 11,7 C 0,0 UV-I 0,0 C 60 % 80 % 0 % 1008,8 hPa 0,0 l/m 0,5 km/h (0 Bft) 0 min 0,0 km/h (0 Bft)
17.11.2009 05:04 15,9 C 11,7 C 0,0 UV-I 0,0 C 60 % 80 % 0 % 1008,8 hPa 0,0 l/m 1,0 km/h (0 Bft) 0 min 0,0 km/h (0 Bft)
17.11.2009 05:06 15,9 C 11,6 C 0,0 UV-I 0,0 C 60 % 80 % 0 % 1008,8 hPa 0,0 l/m 1,2 km/h (1 Bft) 0 min 5,8 km/h (2 Bft)
17.11.2009 05:08 15,9 C 11,7 C 0,0 UV-I 0,0 C 60 % 80 % 0 % 1008,8 hPa 0,0 l/m 1,2 km/h (1 Bft) 0 min 5,8 km/h (2 Bft)
17.11.2009 05:10 15,9 C 11,7 C 0,0 UV-I 0,0 C 60 % 80 % 0 % 1008,8 hPa 0,0 l/m 1,4 km/h (1 Bft) 0 min 4,1 km/h (1 Bft)
17.11.2009 05:12 15,9 C 11,7 C 0,0 UV-I 0,0 C 60 % 80 % 0 % 1008,8 hPa 0,0 l/m 1,7 km/h (1 Bft) 0 min 2,6 km/h (1 Bft)
17.11.2009 05:14 15,9 C 11,6 C 0,0 UV-I 0,0 C 60 % 81 % 0 % 1008,8 hPa 0,0 l/m 1,4 km/h (1 Bft) 0 min 2,6 km/h (1 Bft)
17.11.2009 05:16 15,9 C 11,6 C 0,0 UV-I 0,0 C 60 % 81 % 0 % 1008,8 hPa 0,0 l/m 1,2 km/h (1 Bft) 0 min 2,6 km/h (1 Bft)
17.11.2009 05:18 15,9 C 11,6 C 0,0 UV-I 0,0 C 61 % 81 % 0 % 1008,8 hPa 0,0 l/m 1,0 km/h (0 Bft) 0 min 3,8 km/h (1 Bft)
17.11.2009 05:20 15,9 C 11,6 C 0,0 UV-I 0,0 C 61 % 81 % 0 % 1008,8 hPa 0,0 l/m 0,7 km/h (0 Bft) 0 min 3,8 km/h (1 Bft)
17.11.2009 05:22 16,0 C 11,7 C 0,0 UV-I 0,0 C 61 % 81 % 0 % 1008,8 hPa 0,0 l/m 1,0 km/h (0 Bft) 0 min 2,4 km/h (1 Bft)
17.11.2009 05:24 16,0 C 11,6 C 0,0 UV-I 0,0 C 61 % 81 % 0 % 1008,8 hPa 0,0 l/m 1,0 km/h (0 Bft) 0 min 0,0 km/h (0 Bft)
17.11.2009 05:26 16,0 C 11,7 C 0,0 UV-I 0,0 C 60 % 81 % 0 % 1008,8 hPa 0,0 l/m 1,0 km/h (0 Bft) 0 min 0,0 km/h (0 Bft)
17.11.2009 05:28 15,9 C 11,6 C 0,0 UV-I 0,0 C 61 % 81 % 0 % 1008,8 hPa 0,0 l/m 1,2 km/h (1 Bft) 0 min 0,0 km/h (0 Bft)
17.11.2009 05:30 16,0 C 11,7 C 0,0 UV-I 0,0 C 61 % 81 % 0 % 1008,8 hPa 0,0 l/m 1,0 km/h (0 Bft) 0 min 0,0 km/h (0 Bft)
17.11.2009 05:32 16,0 C 11,7 C 0,0 UV-I 0,0 C 61 % 81 % 0 % 1008,8 hPa 0,0 l/m 1,0 km/h (0 Bft) 0 min 0,0 km/h (0 Bft)
17.11.2009 05:34 15,9 C 11,7 C 0,0 UV-I 0,0 C 61 % 81 % 0 % 1008,6 hPa 0,0 l/m 0,7 km/h (0 Bft) 0 min 0,0 km/h (0 Bft)
17.11.2009 05:36 16,0 C 11,6 C 0,0 UV-I 0,0 C 61 % 81 % 0 % 1008,6 hPa 0,0 l/m 1,0 km/h (0 Bft) 0 min 3,8 km/h (1 Bft)
17.11.2009 05:38 16,0 C 11,7 C 0,0 UV-I 0,0 C 61 % 81 % 0 % 1008,6 hPa 0,0 l/m 1,0 km/h (0 Bft) 0 min 3,8 km/h (1 Bft)
17.11.2009 05:40 16,0 C 11,6 C 0,0 UV-I 0,0 C 61 % 81 % 0 % 1008,6 hPa 0,0 l/m 1,4 km/h (1 Bft) 0 min 6,3 km/h (2 Bft)
17.11.2009 05:42 16,0 C 11,6 C 0,0 UV-I 0,0 C 61 % 81 % 0 % 1008,6 hPa 0,0 l/m 1,4 km/h (1 Bft) 0 min 6,3 km/h (2 Bft)
17.11.2009 05:44 15,9 C 11,6 C 0,0 UV-I 0,0 C 61 % 81 % 0 % 1008,6 hPa 0,0 l/m 1,7 km/h (1 Bft) 0 min 3,6 km/h (1 Bft)
17.11.2009 05:46 16,0 C 11,6 C 0,0 UV-I 0,0 C 61 % 81 % 0 % 1008,6 hPa 0,0 l/m 1,9 km/h (1 Bft) 0 min 3,1 km/h (1 Bft)
17.11.2009 05:48 16,0 C 11,6 C 0,0 UV-I 0,0 C 61 % 81 % 0 % 1008,6 hPa 0,0 l/m 1,7 km/h (1 Bft) 0 min 2,4 km/h (1 Bft)
17.11.2009 05:50 16,0 C 11,6 C 0,0 UV-I 0,0 C 61 % 80 % 0 % 1008,6 hPa 0,0 l/m 1,7 km/h (1 Bft) 0 min 0,0 km/h (0 Bft)
17.11.2009 05:52 16,0 C 11,6 C 0,0 UV-I 0,0 C 61 % 80 % 0 % 1008,6 hPa 0,0 l/m 1,7 km/h (1 Bft) 0 min 3,4 km/h (1 Bft)
17.11.2009 05:54 16,0 C 11,6 C 0,0 UV-I 0,0 C 61 % 80 % 0 % 1008,6 hPa 0,0 l/m 1,7 km/h (1 Bft) 0 min 3,4 km/h (1 Bft)
17.11.2009 05:56 16,0 C 11,7 C 0,0 UV-I 0,0 C 61 % 80 % 0 % 1008,6 hPa 0,0 l/m 1,2 km/h (1 Bft) 0 min 2,9 km/h (1 Bft)
17.11.2009 05:58 16,0 C 11,7 C 0,0 UV-I 0,0 C 61 % 80 % 0 % 1008,6 hPa 0,0 l/m 1,0 km/h (0 Bft) 0 min 2,9 km/h (1 Bft)
17.11.2009 06:00 16,0 C 11,7 C 0,0 UV-I 0,0 C 61 % 81 % 0 % 1008,6 hPa 0,0 l/m 1,2 km/h (1 Bft) 0 min 3,6 km/h (1 Bft)
17.11.2009 06:02 16,0 C 11,7 C 0,0 UV-I 0,0 C 61 % 80 % 0 % 1008,6 hPa 0,0 l/m 1,7 km/h (1 Bft) 0 min 10,6 km/h (2 Bft)
17.11.2009 06:04 16,0 C 11,7 C 0,0 UV-I 0,0 C 61 % 80 % 0 % 1008,6 hPa 0,0 l/m 1,7 km/h (1 Bft) 0 min 10,6 km/h (2 Bft)
17.11.2009 06:06 16,0 C 11,6 C 0,0 UV-I 0,0 C 61 % 80 % 0 % 1008,6 hPa 0,0 l/m 2,2 km/h (1 Bft) 0 min 10,6 km/h (2 Bft)
17.11.2009 06:08 16,0 C 11,6 C 0,0 UV-I 0,0 C 60 % 80 % 0 % 1008,6 hPa 0,0 l/m 2,9 km/h (1 Bft) 0 min 6,0 km/h (2 Bft)
17.11.2009 06:10 16,0 C 11,6 C 0,0 UV-I 0,0 C 60 % 80 % 0 % 1008,6 hPa 0,0 l/m 3,1 km/h (1 Bft) 0 min 6,0 km/h (2 Bft)
17.11.2009 06:12 16,0 C 11,6 C 0,0 UV-I 0,0 C 60 % 80 % 0 % 1008,6 hPa 0,0 l/m 2,6 km/h (1 Bft) 0 min 5,1 km/h (1 Bft)
17.11.2009 06:14 16,0 C 11,6 C 0,0 UV-I 0,0 C 60 % 80 % 0 % 1008,9 hPa 0,0 l/m 1,9 km/h (1 Bft) 0 min 3,8 km/h (1 Bft)
17.11.2009 06:16 15,8 C 11,7 C 0,0 UV-I 0,0 C 60 % 80 % 0 % 1008,9 hPa 0,0 l/m 1,9 km/h (1 Bft) 0 min 3,8 km/h (1 Bft)
17.11.2009 06:18 16,0 C 11,7 C 0,0 UV-I 0,0 C 60 % 80 % 0 % 1008,9 hPa 0,0 l/m 2,2 km/h (1 Bft) 0 min 3,4 km/h (1 Bft)
17.11.2009 06:20 16,0 C 11,7 C 0,0 UV-I 0,0 C 60 % 80 % 0 % 1008,9 hPa 0,0 l/m 2,2 km/h (1 Bft) 0 min 3,8 km/h (1 Bft)
17.11.2009 06:22 15,8 C 11,6 C 0,0 UV-I 0,0 C 60 % 80 % 0 % 1008,9 hPa 0,0 l/m 1,9 km/h (1 Bft) 0 min 3,8 km/h (1 Bft)
17.11.2009 06:24 16,0 C 11,6 C 0,0 UV-I 0,0 C 60 % 80 % 0 % 1008,9 hPa 0,0 l/m 2,2 km/h (1 Bft) 0 min 3,1 km/h (1 Bft)
17.11.2009 06:26 15,8 C 11,7 C 0,0 UV-I 0,0 C 60 % 80 % 0 % 1008,9 hPa 0,0 l/m 2,4 km/h (1 Bft) 0 min 3,6 km/h (1 Bft)
17.11.2009 06:28 15,8 C 11,6 C 0,0 UV-I 0,0 C 60 % 80 % 0 % 1008,9 hPa 0,0 l/m 2,6 km/h (1 Bft) 0 min 10,1 km/h (2 Bft)
17.11.2009 06:30 15,8 C 11,6 C 0,0 UV-I 0,0 C 60 % 80 % 0 % 1008,9 hPa 0,0 l/m 2,9 km/h (1 Bft) 0 min 10,1 km/h (2 Bft)
17.11.2009 06:32 15,8 C 11,6 C 0,0 UV-I 0,0 C 60 % 79 % 0 % 1008,9 hPa 0,0 l/m 2,9 km/h (1 Bft) 0 min 8,7 km/h (2 Bft)
17.11.2009 06:34 15,8 C 11,6 C 0,0 UV-I 0,0 C 60 % 80 % 0 % 1008,7 hPa 0,0 l/m 3,1 km/h (1 Bft) 0 min 8,7 km/h (2 Bft)
17.11.2009 06:36 15,8 C 11,6 C 0,0 UV-I 0,0 C 60 % 79 % 0 % 1008,7 hPa 0,0 l/m 3,8 km/h (1 Bft) 0 min 9,4 km/h (2 Bft)
17.11.2009 06:38 15,9 C 11,6 C 0,0 UV-I 0,0 C 60 % 79 % 0 % 1008,7 hPa 0,0 l/m 4,1 km/h (1 Bft) 0 min 9,4 km/h (2 Bft)
17.11.2009 06:40 15,9 C 11,7 C 0,0 UV-I 0,0 C 60 % 79 % 0 % 1008,7 hPa 0,0 l/m 3,8 km/h (1 Bft) 0 min 5,8 km/h (2 Bft)
17.11.2009 06:42 15,9 C 11,7 C 0,0 UV-I 0,0 C 60 % 79 % 0 % 1008,7 hPa 0,0 l/m 3,8 km/h (1 Bft) 0 min 10,3 km/h (2 Bft)
17.11.2009 06:44 15,9 C 11,7 C 0,0 UV-I 0,0 C 60 % 78 % 0 % 1008,7 hPa 0,0 l/m 4,3 km/h (1 Bft) 0 min 10,3 km/h (2 Bft)
17.11.2009 06:46 15,9 C 11,7 C 0,0 UV-I 0,0 C 60 % 78 % 0 % 1008,7 hPa 0,0 l/m 4,6 km/h (1 Bft) 0 min 8,7 km/h (2 Bft)
17.11.2009 06:48 15,9 C 11,7 C 0,0 UV-I 0,0 C 60 % 78 % 0 % 1008,7 hPa 0,0 l/m 4,3 km/h (1 Bft) 0 min 8,7 km/h (2 Bft)
17.11.2009 06:50 15,9 C 11,8 C 0,0 UV-I 0,0 C 60 % 78 % 0 % 1008,7 hPa 0,0 l/m 4,3 km/h (1 Bft) 0 min 5,3 km/h (1 Bft)
17.11.2009 06:52 15,9 C 11,8 C 0,0 UV-I 0,0 C 60 % 78 % 0 % 1008,7 hPa 0,0 l/m 4,6 km/h (1 Bft) 0 min 4,8 km/h (1 Bft)
17.11.2009 06:54 15,9 C 11,8 C 0,0 UV-I 0,0 C 60 % 78 % 0 % 1008,7 hPa 0,0 l/m 3,6 km/h (1 Bft) 0 min 4,8 km/h (1 Bft)
17.11.2009 06:56 15,9 C 11,9 C 0,0 UV-I 0,0 C 60 % 78 % 0 % 1008,7 hPa 0,0 l/m 3,4 km/h (1 Bft) 0 min 2,4 km/h (1 Bft)
17.11.2009 06:58 15,8 C 11,9 C 0,0 UV-I 0,0 C 60 % 78 % 0 % 1008,7 hPa 0,0 l/m 2,9 km/h (1 Bft) 0 min 2,4 km/h (1 Bft)
17.11.2009 07:00 15,8 C 11,8 C 0,0 UV-I 0,0 C 60 % 78 % 0 % 1008,7 hPa 0,0 l/m 2,4 km/h (1 Bft) 0 min 0,0 km/h (0 Bft)
17.11.2009 07:02 15,8 C 11,8 C 0,0 UV-I 0,0 C 60 % 78 % 0 % 1008,7 hPa 0,0 l/m 1,7 km/h (1 Bft) 0 min 0,0 km/h (0 Bft)
17.11.2009 07:04 15,9 C 11,7 C 0,0 UV-I 0,0 C 60 % 78 % 0 % 1008,7 hPa 0,0 l/m 1,4 km/h (1 Bft) 0 min 5,1 km/h (1 Bft)
17.11.2009 07:06 15,8 C 11,8 C 0,0 UV-I 0,0 C 60 % 78 % 0 % 1008,7 hPa 0,0 l/m 2,4 km/h (1 Bft) 0 min 10,1 km/h (2 Bft)
17.11.2009 07:08 15,8 C 11,7 C 0,0 UV-I 0,0 C 60 % 78 % 0 % 1008,7 hPa 0,0 l/m 3,1 km/h (1 Bft) 0 min 11,8 km/h (2 Bft)
17.11.2009 07:10 15,8 C 11,7 C 0,0 UV-I 0,0 C 60 % 79 % 0 % 1008,7 hPa 0,0 l/m 3,8 km/h (1 Bft) 0 min 11,8 km/h (2 Bft)
17.11.2009 07:12 15,8 C 11,7 C 0,0 UV-I 0,0 C 60 % 79 % 0 % 1008,7 hPa 0,0 l/m 4,6 km/h (1 Bft) 0 min 10,1 km/h (2 Bft)
17.11.2009 07:14 15,9 C 11,7 C 0,0 UV-I 0,0 C 60 % 79 % 0 % 1008,2 hPa 0,0 l/m 5,1 km/h (1 Bft) 0 min 10,1 km/h (2 Bft)
17.11.2009 07:16 15,9 C 11,7 C 0,0 UV-I 0,0 C 60 % 79 % 0 % 1008,2 hPa 0,0 l/m 4,8 km/h (1 Bft) 0 min 5,5 km/h (1 Bft)
17.11.2009 07:18 15,8 C 11,7 C 0,0 UV-I 0,0 C 60 % 79 % 0 % 1008,2 hPa 0,0 l/m 4,1 km/h (1 Bft) 0 min 3,1 km/h (1 Bft)
17.11.2009 07:20 15,9 C 11,7 C 0,0 UV-I 0,0 C 60 % 79 % 0 % 1008,2 hPa 0,0 l/m 3,1 km/h (1 Bft) 0 min 2,6 km/h (1 Bft)
17.11.2009 07:22 15,8 C 11,7 C 0,0 UV-I 0,0 C 60 % 79 % 0 % 1008,2 hPa 0,0 l/m 2,9 km/h (1 Bft) 0 min 3,1 km/h (1 Bft)
17.11.2009 07:24 15,9 C 11,7 C 0,0 UV-I 0,0 C 60 % 80 % 0 % 1008,2 hPa 0,0 l/m 1,7 km/h (1 Bft) 0 min 3,1 km/h (1 Bft)
17.11.2009 07:26 15,9 C 11,7 C 0,0 UV-I 0,0 C 60 % 80 % 0 % 1008,2 hPa 0,0 l/m 1,7 km/h (1 Bft) 0 min 2,4 km/h (1 Bft)
17.11.2009 07:28 15,9 C 11,7 C 0,0 UV-I 0,0 C 60 % 80 % 0 % 1008,2 hPa 0,0 l/m 1,2 km/h (1 Bft) 0 min 0,0 km/h (0 Bft)
17.11.2009 07:30 15,9 C 11,7 C 0,0 UV-I 0,0 C 60 % 80 % 0 % 1008,2 hPa 0,0 l/m 1,0 km/h (0 Bft) 0 min 7,2 km/h (2 Bft)
17.11.2009 07:32 15,9 C 11,7 C 0,0 UV-I 0,0 C 60 % 80 % 0 % 1008,2 hPa 0,0 l/m 0,7 km/h (0 Bft) 0 min 7,2 km/h (2 Bft)
17.11.2009 07:34 15,9 C 11,6 C 0,0 UV-I 0,0 C 60 % 80 % 0 % 1008,5 hPa 0,0 l/m 1,0 km/h (0 Bft) 0 min 4,1 km/h (1 Bft)
17.11.2009 07:36 15,9 C 11,6 C 0,0 UV-I 0,0 C 60 % 80 % 0 % 1008,5 hPa 0,0 l/m 1,0 km/h (0 Bft) 0 min 4,1 km/h (1 Bft)
17.11.2009 07:38 15,9 C 11,6 C 0,0 UV-I 0,0 C 60 % 80 % 0 % 1008,5 hPa 0,0 l/m 1,0 km/h (0 Bft) 0 min 3,1 km/h (1 Bft)
17.11.2009 07:40 15,9 C 11,6 C 0,0 UV-I 0,0 C 60 % 80 % 0 % 1008,5 hPa 0,0 l/m 1,0 km/h (0 Bft) 0 min 0,0 km/h (0 Bft)
17.11.2009 07:42 15,9 C 11,6 C 0,0 UV-I 0,0 C 60 % 80 % 0 % 1008,5 hPa 0,0 l/m 0,7 km/h (0 Bft) 0 min 0,0 km/h (0 Bft)
17.11.2009 07:44 15,9 C 11,6 C 0,0 UV-I 0,0 C 60 % 80 % 0 % 1008,5 hPa 0,0 l/m 0,7 km/h (0 Bft) 0 min 0,0 km/h (0 Bft)
17.11.2009 07:46 15,9 C 11,6 C 0,0 UV-I 0,0 C 60 % 81 % 0 % 1008,5 hPa 0,0 l/m 0,2 km/h (0 Bft) 0 min 0,0 km/h (0 Bft)
17.11.2009 07:48 15,9 C 11,7 C 0,0 UV-I 0,0 C 60 % 81 % 0 % 1008,5 hPa 0,0 l/m 0,2 km/h (0 Bft) 0 min 0,0 km/h (0 Bft)
17.11.2009 07:50 15,9 C 11,6 C 0,0 UV-I 0,0 C 60 % 81 % 0 % 1008,5 hPa 0,0 l/m 0,0 km/h (0 Bft) 0 min 0,0 km/h (0 Bft)
17.11.2009 07:52 15,9 C 11,6 C 0,0 UV-I 0,0 C 61 % 81 % 0 % 1008,5 hPa 0,0 l/m 0,0 km/h (0 Bft) 0 min 0,0 km/h (0 Bft)
17.11.2009 07:54 15,9 C 11,6 C 0,0 UV-I 0,0 C 61 % 82 % 0 % 1008,5 hPa 0,0 l/m 0,0 km/h (0 Bft) 0 min 0,0 km/h (0 Bft)
17.11.2009 07:56 15,8 C 11,6 C 0,0 UV-I 0,0 C 61 % 82 % 0 % 1008,5 hPa 0,0 l/m 0,0 km/h (0 Bft) 0 min 0,0 km/h (0 Bft)
17.11.2009 07:58 15,8 C 11,5 C 0,0 UV-I 0,0 C 61 % 82 % 0 % 1008,5 hPa 0,0 l/m 0,0 km/h (0 Bft) 0 min 0,0 km/h (0 Bft)
17.11.2009 08:00 16,0 C 11,5 C 0,0 UV-I 0,0 C 61 % 82 % 0 % 1008,5 hPa 0,0 l/m 0,0 km/h (0 Bft) 0 min 0,0 km/h (0 Bft)
17.11.2009 08:02 16,0 C 11,5 C 0,0 UV-I 0,0 C 61 % 82 % 0 % 1008,5 hPa 0,0 l/m 0,0 km/h (0 Bft) 0 min 0,0 km/h (0 Bft)
17.11.2009 08:04 16,0 C 11,4 C 0,0 UV-I 0,0 C 61 % 82 % 0 % 1008,5 hPa 0,0 l/m 0,0 km/h (0 Bft) 0 min 0,0 km/h (0 Bft)
17.11.2009 08:06 16,0 C 11,4 C 0,0 UV-I 0,0 C 61 % 82 % 0 % 1008,5 hPa 0,0 l/m 0,0 km/h (0 Bft) 0 min 0,0 km/h (0 Bft)
17.11.2009 08:08 16,0 C 11,5 C 0,0 UV-I 0,0 C 61 % 82 % 0 % 1008,5 hPa 0,0 l/m 0,0 km/h (0 Bft) 0 min 0,0 km/h (0 Bft)
17.11.2009 08:10 16,0 C 11,5 C 0,0 UV-I 0,0 C 61 % 83 % 0 % 1008,5 hPa 0,0 l/m 0,2 km/h (0 Bft) 0 min 0,0 km/h (0 Bft)
17.11.2009 08:12 16,0 C 11,4 C 0,0 UV-I 0,0 C 61 % 83 % 0 % 1008,5 hPa 0,0 l/m 0,7 km/h (0 Bft) 0 min 3,8 km/h (1 Bft)
17.11.2009 08:14 16,0 C 11,5 C 0,0 UV-I 0,0 C 61 % 83 % 0 % 1008,8 hPa 0,0 l/m 1,0 km/h (0 Bft) 0 min 3,8 km/h (1 Bft)
17.11.2009 08:16 16,0 C 11,4 C 0,0 UV-I 0,0 C 61 % 83 % 0 % 1008,8 hPa 0,0 l/m 1,4 km/h (1 Bft) 0 min 3,8 km/h (1 Bft)
17.11.2009 08:18 15,9 C 11,3 C 0,0 UV-I 0,0 C 61 % 83 % 0 % 1008,8 hPa 0,0 l/m 2,2 km/h (1 Bft) 0 min 4,1 km/h (1 Bft)
17.11.2009 08:20 15,9 C 11,3 C 0,0 UV-I 0,0 C 61 % 83 % 0 % 1008,8 hPa 0,0 l/m 2,4 km/h (1 Bft) 0 min 4,1 km/h (1 Bft)
17.11.2009 08:22 15,9 C 11,3 C 0,0 UV-I 0,0 C 61 % 83 % 0 % 1008,8 hPa 0,0 l/m 2,2 km/h (1 Bft) 0 min 2,6 km/h (1 Bft)
17.11.2009 08:24 15,9 C 11,3 C 0,0 UV-I 0,0 C 61 % 83 % 0 % 1008,8 hPa 0,0 l/m 1,7 km/h (1 Bft) 0 min 2,9 km/h (1 Bft)
17.11.2009 08:26 15,9 C 11,3 C 0,0 UV-I 0,0 C 61 % 84 % 0 % 1008,8 hPa 0,0 l/m 2,2 km/h (1 Bft) 0 min 4,3 km/h (1 Bft)
17.11.2009 08:28 15,9 C 11,2 C 0,0 UV-I 0,0 C 61 % 84 % 0 % 1008,8 hPa 0,0 l/m 2,4 km/h (1 Bft) 0 min 4,3 km/h (1 Bft)
17.11.2009 08:30 15,9 C 11,2 C 0,0 UV-I 0,0 C 61 % 84 % 0 % 1008,8 hPa 0,0 l/m 2,4 km/h (1 Bft) 0 min 4,1 km/h (1 Bft)
17.11.2009 08:32 15,9 C 11,2 C 0,0 UV-I 0,0 C 61 % 84 % 0 % 1008,8 hPa 0,0 l/m 3,1 km/h (1 Bft) 0 min 6,3 km/h (2 Bft)
17.11.2009 08:34 15,9 C 11,2 C 0,0 UV-I 0,0 C 61 % 84 % 0 % 1008,9 hPa 0,0 l/m 3,6 km/h (1 Bft) 0 min 5,1 km/h (1 Bft)
17.11.2009 08:36 16,1 C 11,2 C 0,0 UV-I 0,0 C 61 % 85 % 0 % 1008,9 hPa 0,0 l/m 4,1 km/h (1 Bft) 0 min 6,5 km/h (2 Bft)
17.11.2009 08:38 16,1 C 11,3 C 0,0 UV-I 0,0 C 61 % 85 % 0 % 1008,9 hPa 0,0 l/m 4,3 km/h (1 Bft) 0 min 6,5 km/h (2 Bft)
17.11.2009 08:40 16,1 C 11,3 C 0,0 UV-I 0,0 C 61 % 85 % 0 % 1008,9 hPa 0,0 l/m 4,6 km/h (1 Bft) 0 min 7,5 km/h (2 Bft)
17.11.2009 08:42 16,1 C 11,3 C 0,0 UV-I 0,0 C 61 % 85 % 0 % 1008,9 hPa 0,0 l/m 4,8 km/h (1 Bft) 0 min 8,9 km/h (2 Bft)
17.11.2009 08:44 16,1 C 11,3 C 0,0 UV-I 0,0 C 61 % 85 % 0 % 1008,9 hPa 0,0 l/m 4,1 km/h (1 Bft) 0 min 8,9 km/h (2 Bft)
17.11.2009 08:46 16,1 C 11,3 C 0,0 UV-I 0,0 C 61 % 85 % 0 % 1008,9 hPa 0,0 l/m 3,6 km/h (1 Bft) 0 min 4,1 km/h (1 Bft)
17.11.2009 08:48 16,1 C 11,3 C 0,0 UV-I 0,0 C 61 % 85 % 0 % 1008,9 hPa 0,0 l/m 2,9 km/h (1 Bft) 0 min 4,3 km/h (1 Bft)
17.11.2009 08:50 16,1 C 11,3 C 0,0 UV-I 0,0 C 61 % 85 % 0 % 1008,9 hPa 0,0 l/m 2,4 km/h (1 Bft) 0 min 5,3 km/h (1 Bft)
17.11.2009 08:52 16,1 C 11,3 C 0,0 UV-I 0,0 C 61 % 85 % 0 % 1008,9 hPa 0,0 l/m 1,9 km/h (1 Bft) 0 min 5,3 km/h (1 Bft)
17.11.2009 08:54 16,1 C 11,5 C 0,0 UV-I 0,0 C 61 % 85 % 0 % 1009,2 hPa 0,0 l/m 1,4 km/h (1 Bft) 0 min 3,8 km/h (1 Bft)
17.11.2009 08:56 16,1 C 11,5 C 0,0 UV-I 0,0 C 61 % 84 % 0 % 1009,2 hPa 0,0 l/m 1,7 km/h (1 Bft) 0 min 2,9 km/h (1 Bft)
17.11.2009 08:58 16,1 C 11,5 C 0,0 UV-I 0,0 C 61 % 84 % 0 % 1009,2 hPa 0,0 l/m 2,2 km/h (1 Bft) 0 min 4,8 km/h (1 Bft)
17.11.2009 09:00 16,1 C 11,4 C 0,0 UV-I 0,0 C 61 % 84 % 0 % 1009,2 hPa 0,0 l/m 2,4 km/h (1 Bft) 0 min 4,8 km/h (1 Bft)
17.11.2009 09:02 16,1 C 11,5 C 0,0 UV-I 0,0 C 61 % 84 % 0 % 1009,2 hPa 0,0 l/m 2,4 km/h (1 Bft) 0 min 7,7 km/h (2 Bft)
17.11.2009 09:04 16,1 C 11,5 C 0,0 UV-I 0,0 C 61 % 84 % 0 % 1009,2 hPa 0,0 l/m 2,2 km/h (1 Bft) 0 min 7,7 km/h (2 Bft)
17.11.2009 09:06 16,1 C 11,6 C 0,0 UV-I 0,0 C 61 % 84 % 0 % 1009,2 hPa 0,0 l/m 2,6 km/h (1 Bft) 0 min 3,1 km/h (1 Bft)
17.11.2009 09:08 16,1 C 11,6 C 0,0 UV-I 0,0 C 61 % 84 % 0 % 1009,2 hPa 0,0 l/m 2,6 km/h (1 Bft) 0 min 3,1 km/h (1 Bft)
17.11.2009 09:10 16,1 C 11,5 C 0,0 UV-I 0,0 C 61 % 84 % 0 % 1009,2 hPa 0,0 l/m 2,4 km/h (1 Bft) 0 min 2,9 km/h (1 Bft)
17.11.2009 09:12 15,9 C 11,6 C 0,0 UV-I 0,0 C 61 % 84 % 0 % 1009,2 hPa 0,0 l/m 2,2 km/h (1 Bft) 0 min 4,3 km/h (1 Bft)
17.11.2009 09:14 15,9 C 11,6 C 0,0 UV-I 0,0 C 61 % 84 % 0 % 1009,3 hPa 0,0 l/m 2,2 km/h (1 Bft) 0 min 4,3 km/h (1 Bft)
17.11.2009 09:16 15,9 C 11,6 C 0,0 UV-I 0,0 C 61 % 84 % 0 % 1009,3 hPa 0,0 l/m 2,2 km/h (1 Bft) 0 min 2,4 km/h (1 Bft)
17.11.2009 09:18 15,9 C 11,6 C 0,0 UV-I 0,0 C 61 % 83 % 0 % 1009,3 hPa 0,0 l/m 2,2 km/h (1 Bft) 0 min 2,4 km/h (1 Bft)
17.11.2009 09:20 15,9 C 11,6 C 0,0 UV-I 0,0 C 61 % 84 % 0 % 1009,3 hPa 0,0 l/m 1,7 km/h (1 Bft) 0 min 0,0 km/h (0 Bft)
17.11.2009 09:22 15,9 C 11,7 C 0,0 UV-I 0,0 C 61 % 83 % 0 % 1009,3 hPa 0,0 l/m 1,7 km/h (1 Bft) 0 min 6,5 km/h (2 Bft)
17.11.2009 09:24 15,9 C 11,7 C 0,0 UV-I 0,0 C 61 % 84 % 0 % 1009,3 hPa 0,0 l/m 1,7 km/h (1 Bft) 0 min 6,0 km/h (2 Bft)
17.11.2009 09:26 15,9 C 11,6 C 0,0 UV-I 0,0 C 61 % 84 % 0 % 1009,3 hPa 0,0 l/m 2,6 km/h (1 Bft) 0 min 14,0 km/h (3 Bft)
17.11.2009 09:28 15,9 C 11,6 C 0,0 UV-I 0,0 C 61 % 84 % 0 % 1009,3 hPa 0,0 l/m 3,8 km/h (1 Bft) 0 min 14,0 km/h (3 Bft)
17.11.2009 09:30 15,9 C 11,7 C 0,0 UV-I 0,0 C 61 % 84 % 0 % 1009,3 hPa 0,0 l/m 3,8 km/h (1 Bft) 0 min 7,0 km/h (2 Bft)
17.11.2009 09:32 15,9 C 11,7 C 0,0 UV-I 0,0 C 61 % 84 % 0 % 1009,3 hPa 0,0 l/m 4,6 km/h (1 Bft) 0 min 7,0 km/h (2 Bft)
17.11.2009 09:34 15,9 C 11,7 C 0,0 UV-I 0,0 C 61 % 84 % 0 % 1008,9 hPa 0,0 l/m 5,1 km/h (1 Bft) 0 min 15,2 km/h (3 Bft)
17.11.2009 09:36 15,9 C 11,6 C 0,0 UV-I 0,0 C 61 % 84 % 0 % 1008,9 hPa 0,0 l/m 5,8 km/h (2 Bft) 0 min 15,2 km/h (3 Bft)
17.11.2009 09:38 15,9 C 11,6 C 0,0 UV-I 0,0 C 61 % 84 % 0 % 1008,9 hPa 0,0 l/m 4,6 km/h (1 Bft) 0 min 3,6 km/h (1 Bft)
17.11.2009 09:40 15,9 C 11,6 C 0,0 UV-I 0,0 C 61 % 84 % 0 % 1008,9 hPa 0,0 l/m 4,3 km/h (1 Bft) 0 min 6,7 km/h (2 Bft)
17.11.2009 09:42 15,9 C 11,6 C 0,0 UV-I 0,0 C 62 % 84 % 0 % 1008,9 hPa 0,0 l/m 4,6 km/h (1 Bft) 0 min 15,2 km/h (3 Bft)
17.11.2009 09:44 15,9 C 11,7 C 0,0 UV-I 0,0 C 62 % 84 % 0 % 1008,9 hPa 0,0 l/m 4,6 km/h (1 Bft) 0 min 14,2 km/h (3 Bft)
17.11.2009 09:46 15,9 C 11,7 C 0,0 UV-I 0,0 C 61 % 84 % 0 % 1008,9 hPa 0,0 l/m 4,1 km/h (1 Bft) 0 min 14,2 km/h (3 Bft)
17.11.2009 09:48 15,9 C 11,7 C 0,0 UV-I 0,0 C 62 % 84 % 0 % 1008,9 hPa 0,0 l/m 4,8 km/h (1 Bft) 0 min 9,9 km/h (2 Bft)
17.11.2009 09:50 15,9 C 11,7 C 0,0 UV-I 0,0 C 62 % 84 % 0 % 1008,9 hPa 0,0 l/m 5,3 km/h (1 Bft) 0 min 9,9 km/h (2 Bft)
17.11.2009 09:52 15,9 C 11,7 C 0,0 UV-I 0,0 C 62 % 84 % 0 % 1008,9 hPa 0,0 l/m 5,8 km/h (2 Bft) 0 min 7,5 km/h (2 Bft)
17.11.2009 09:54 15,9 C 11,8 C 0,0 UV-I 0,0 C 62 % 84 % 0 % 1008,8 hPa 0,0 l/m 6,7 km/h (2 Bft) 0 min 12,8 km/h (3 Bft)
17.11.2009 09:56 15,9 C 11,7 C 0,0 UV-I 0,0 C 62 % 83 % 0 % 1008,8 hPa 0,0 l/m 6,3 km/h (2 Bft) 0 min 12,8 km/h (3 Bft)
17.11.2009 09:58 15,9 C 11,8 C 0,0 UV-I 0,0 C 62 % 83 % 0 % 1008,8 hPa 0,0 l/m 6,0 km/h (2 Bft) 0 min 8,7 km/h (2 Bft)
17.11.2009 10:00 15,9 C 11,7 C 0,0 UV-I 0,0 C 62 % 82 % 0 % 1008,8 hPa 0,0 l/m 6,3 km/h (2 Bft) 0 min 12,0 km/h (2 Bft)
17.11.2009 10:02 15,9 C 11,9 C 0,0 UV-I 0,0 C 62 % 82 % 0 % 1008,8 hPa 0,0 l/m 7,0 km/h (2 Bft) 0 min 18,0 km/h (3 Bft)
17.11.2009 10:04 15,9 C 11,9 C 0,2 UV-I 0,0 C 61 % 82 % 0 % 1008,8 hPa 0,0 l/m 7,5 km/h (2 Bft) 0 min 12,3 km/h (3 Bft)
17.11.2009 10:06 15,9 C 11,9 C 0,2 UV-I 0,0 C 62 % 82 % 0 % 1008,8 hPa 0,0 l/m 7,5 km/h (2 Bft) 0 min 8,9 km/h (2 Bft)
17.11.2009 10:08 15,9 C 11,9 C 0,2 UV-I 0,0 C 61 % 82 % 0 % 1008,8 hPa 0,0 l/m 7,7 km/h (2 Bft) 0 min 7,9 km/h (2 Bft)
17.11.2009 10:10 15,9 C 11,8 C 0,2 UV-I 0,0 C 61 % 82 % 0 % 1008,8 hPa 0,0 l/m 8,2 km/h (2 Bft) 0 min 9,6 km/h (2 Bft)
17.11.2009 10:12 16,1 C 11,8 C 0,2 UV-I 0,1 C 61 % 82 % 3 % 1008,8 hPa 0,0 l/m 7,0 km/h (2 Bft) 0 min 9,6 km/h (2 Bft)
17.11.2009 10:14 16,1 C 11,9 C 0,2 UV-I 0,0 C 61 % 82 % 0 % 1008,9 hPa 0,0 l/m 6,7 km/h (2 Bft) 0 min 4,6 km/h (1 Bft)
17.11.2009 10:16 16,1 C 11,8 C 0,2 UV-I 0,1 C 61 % 82 % 3 % 1008,9 hPa 0,0 l/m 6,3 km/h (2 Bft) 0 min 5,5 km/h (1 Bft)
17.11.2009 10:18 16,1 C 11,9 C 0,2 UV-I 0,0 C 61 % 82 % 0 % 1008,9 hPa 0,0 l/m 5,8 km/h (2 Bft) 0 min 5,5 km/h (1 Bft)
17.11.2009 10:20 16,1 C 11,9 C 0,1 UV-I 0,0 C 61 % 82 % 0 % 1008,9 hPa 0,0 l/m 4,6 km/h (1 Bft) 0 min 3,8 km/h (1 Bft)
17.11.2009 10:22 16,1 C 11,9 C 0,1 UV-I 0,0 C 61 % 82 % 0 % 1008,9 hPa 0,0 l/m 3,6 km/h (1 Bft) 0 min 0,0 km/h (0 Bft)
17.11.2009 10:24 16,1 C 11,9 C 0,3 UV-I 0,1 C 61 % 82 % 3 % 1008,9 hPa 0,0 l/m 2,9 km/h (1 Bft) 0 min 5,8 km/h (2 Bft)
17.11.2009 10:26 16,1 C 11,9 C 0,3 UV-I 0,2 C 61 % 82 % 6 % 1008,9 hPa 0,0 l/m 2,6 km/h (1 Bft) 0 min 7,5 km/h (2 Bft)
17.11.2009 10:28 16,2 C 11,9 C 0,3 UV-I 0,2 C 62 % 82 % 6 % 1008,9 hPa 0,0 l/m 2,2 km/h (1 Bft) 0 min 7,5 km/h (2 Bft)
17.11.2009 10:30 16,2 C 11,9 C 0,3 UV-I 0,2 C 62 % 82 % 6 % 1008,9 hPa 0,0 l/m 1,9 km/h (1 Bft) 0 min 0,0 km/h (0 Bft)
17.11.2009 10:32 16,2 C 11,9 C 0,3 UV-I 0,3 C 62 % 81 % 9 % 1008,9 hPa 0,0 l/m 1,9 km/h (1 Bft) 0 min 2,6 km/h (1 Bft)
17.11.2009 10:34 16,2 C 11,9 C 0,3 UV-I 0,3 C 62 % 81 % 9 % 1009,6 hPa 0,0 l/m 1,9 km/h (1 Bft) 0 min 2,6 km/h (1 Bft)
17.11.2009 10:36 16,2 C 11,9 C 0,3 UV-I 0,3 C 62 % 81 % 9 % 1009,6 hPa 0,0 l/m 1,7 km/h (1 Bft) 0 min 3,6 km/h (1 Bft)
17.11.2009 10:38 16,2 C 12,0 C 0,3 UV-I 0,2 C 61 % 81 % 6 % 1009,6 hPa 0,0 l/m 1,4 km/h (1 Bft) 0 min 6,3 km/h (2 Bft)
17.11.2009 10:40 16,2 C 11,9 C 0,3 UV-I 0,3 C 61 % 81 % 9 % 1009,6 hPa 0,0 l/m 1,4 km/h (1 Bft) 0 min 6,3 km/h (2 Bft)
17.11.2009 10:42 16,2 C 11,9 C 0,3 UV-I 0,3 C 61 % 81 % 9 % 1009,6 hPa 0,0 l/m 1,4 km/h (1 Bft) 0 min 3,4 km/h (1 Bft)
17.11.2009 10:44 16,2 C 12,0 C 0,2 UV-I 0,2 C 61 % 81 % 6 % 1009,6 hPa 0,0 l/m 1,0 km/h (0 Bft) 0 min 3,4 km/h (1 Bft)
17.11.2009 10:46 16,2 C 11,9 C 0,2 UV-I 0,3 C 61 % 81 % 9 % 1009,6 hPa 0,0 l/m 1,0 km/h (0 Bft) 0 min 0,0 km/h (0 Bft)
17.11.2009 10:48 16,2 C 12,0 C 0,2 UV-I 0,2 C 61 % 81 % 6 % 1009,6 hPa 0,0 l/m 0,7 km/h (0 Bft) 0 min 0,0 km/h (0 Bft)
17.11.2009 10:50 16,2 C 12,0 C 0,2 UV-I 0,2 C 61 % 81 % 6 % 1009,6 hPa 0,0 l/m 0,7 km/h (0 Bft) 0 min 6,3 km/h (2 Bft)
17.11.2009 10:52 16,3 C 12,0 C 0,2 UV-I 0,2 C 61 % 80 % 6 % 1009,6 hPa 0,0 l/m 1,4 km/h (1 Bft) 0 min 8,2 km/h (2 Bft)
17.11.2009 10:54 16,2 C 12,0 C 0,1 UV-I 0,2 C 61 % 80 % 6 % 1009,8 hPa 0,0 l/m 2,2 km/h (1 Bft) 0 min 8,2 km/h (2 Bft)
17.11.2009 10:56 16,2 C 12,1 C 0,1 UV-I 0,0 C 61 % 80 % 0 % 1009,8 hPa 0,0 l/m 2,6 km/h (1 Bft) 0 min 3,6 km/h (1 Bft)
17.11.2009 10:58 16,2 C 12,0 C 0,1 UV-I 0,1 C 61 % 80 % 3 % 1009,8 hPa 0,0 l/m 2,6 km/h (1 Bft) 0 min 3,6 km/h (1 Bft)
17.11.2009 11:00 16,2 C 12,0 C 0,3 UV-I 0,1 C 61 % 80 % 3 % 1009,8 hPa 0,0 l/m 2,6 km/h (1 Bft) 0 min 0,0 km/h (0 Bft)
17.11.2009 11:02 16,2 C 12,0 C 0,3 UV-I 0,1 C 61 % 80 % 3 % 1009,8 hPa 0,0 l/m 2,9 km/h (1 Bft) 0 min 6,0 km/h (2 Bft)
17.11.2009 11:04 16,2 C 12,0 C 0,4 UV-I 0,1 C 61 % 80 % 3 % 1009,8 hPa 0,0 l/m 2,4 km/h (1 Bft) 0 min 6,5 km/h (2 Bft)
17.11.2009 11:06 16,2 C 11,9 C 0,4 UV-I 0,2 C 61 % 79 % 6 % 1009,8 hPa 0,0 l/m 3,4 km/h (1 Bft) 0 min 7,7 km/h (2 Bft)
17.11.2009 11:08 16,2 C 12,0 C 0,4 UV-I 0,1 C 61 % 79 % 3 % 1009,8 hPa 0,0 l/m 4,6 km/h (1 Bft) 0 min 20,9 km/h (4 Bft)
17.11.2009 11:10 16,2 C 12,0 C 0,2 UV-I 0,0 C 60 % 79 % 0 % 1009,8 hPa 0,0 l/m 5,1 km/h (1 Bft) 0 min 20,9 km/h (4 Bft)
17.11.2009 11:12 16,2 C 12,0 C 0,2 UV-I 0,0 C 60 % 79 % 0 % 1009,8 hPa 0,0 l/m 5,3 km/h (1 Bft) 0 min 20,9 km/h (4 Bft)
17.11.2009 11:14 16,2 C 12,0 C 0,1 UV-I 0,0 C 60 % 79 % 0 % 1009,6 hPa 0,0 l/m 5,3 km/h (1 Bft) 0 min 4,6 km/h (1 Bft)
17.11.2009 11:16 16,2 C 12,0 C 0,1 UV-I 0,0 C 60 % 79 % 0 % 1009,6 hPa 0,0 l/m 5,8 km/h (2 Bft) 0 min 9,1 km/h (2 Bft)
17.11.2009 11:18 16,2 C 12,0 C 0,1 UV-I 0,0 C 60 % 79 % 0 % 1009,6 hPa 0,0 l/m 5,5 km/h (1 Bft) 0 min 10,8 km/h (2 Bft)
17.11.2009 11:20 16,2 C 12,1 C 0,1 UV-I 0,0 C 60 % 79 % 0 % 1009,6 hPa 0,0 l/m 4,6 km/h (1 Bft) 0 min 10,8 km/h (2 Bft)
17.11.2009 11:22 16,2 C 12,0 C 0,1 UV-I 0,0 C 60 % 79 % 0 % 1009,6 hPa 0,0 l/m 3,8 km/h (1 Bft) 0 min 2,4 km/h (1 Bft)
17.11.2009 11:24 16,2 C 11,9 C 0,2 UV-I 0,0 C 60 % 79 % 0 % 1009,6 hPa 0,0 l/m 3,4 km/h (1 Bft) 0 min 3,6 km/h (1 Bft)
17.11.2009 11:26 16,2 C 12,0 C 0,2 UV-I 0,0 C 60 % 79 % 0 % 1009,6 hPa 0,0 l/m 3,1 km/h (1 Bft) 0 min 4,6 km/h (1 Bft)
17.11.2009 11:28 16,2 C 11,9 C 0,2 UV-I 0,0 C 60 % 79 % 0 % 1009,6 hPa 0,0 l/m 2,4 km/h (1 Bft) 0 min 4,6 km/h (1 Bft)
17.11.2009 11:30 16,2 C 11,9 C 0,1 UV-I 0,0 C 60 % 79 % 0 % 1009,6 hPa 0,0 l/m 1,4 km/h (1 Bft) 0 min 3,4 km/h (1 Bft)
17.11.2009 11:32 16,2 C 11,9 C 0,1 UV-I 0,0 C 60 % 79 % 0 % 1009,6 hPa 0,0 l/m 1,2 km/h (1 Bft) 0 min 2,6 km/h (1 Bft)
17.11.2009 11:34 16,3 C 12,0 C 0,1 UV-I 0,0 C 60 % 79 % 0 % 1010,0 hPa 0,0 l/m 1,2 km/h (1 Bft) 0 min 2,6 km/h (1 Bft)
17.11.2009 11:36 16,2 C 11,9 C 0,1 UV-I 0,0 C 60 % 79 % 0 % 1010,0 hPa 0,0 l/m 1,2 km/h (1 Bft) 0 min 0,0 km/h (0 Bft)
17.11.2009 11:40 16,2 C 11,9 C 0,2 UV-I 0,0 C 60 % 79 % 0 % 1010,0 hPa 0,0 l/m 0,7 km/h (0 Bft) 0 min 5,1 km/h (1 Bft)
17.11.2009 11:42 16,2 C 11,9 C 0,2 UV-I 0,0 C 60 % 79 % 0 % 1010,0 hPa 0,0 l/m 0,7 km/h (0 Bft) 0 min 0,0 km/h (0 Bft)
17.11.2009 11:44 16,2 C 11,9 C 0,3 UV-I 0,0 C 60 % 79 % 0 % 1010,0 hPa 0,0 l/m 1,0 km/h (0 Bft) 0 min 2,6 km/h (1 Bft)
17.11.2009 11:46 16,2 C 11,9 C 0,3 UV-I 0,0 C 60 % 79 % 0 % 1010,0 hPa 0,0 l/m 1,4 km/h (1 Bft) 0 min 3,1 km/h (1 Bft)
17.11.2009 11:48 16,2 C 12,0 C 0,3 UV-I 0,0 C 60 % 79 % 0 % 1010,0 hPa 0,0 l/m 1,9 km/h (1 Bft) 0 min 6,3 km/h (2 Bft)
17.11.2009 11:50 16,2 C 11,9 C 0,1 UV-I 0,0 C 60 % 79 % 0 % 1010,0 hPa 0,0 l/m 1,9 km/h (1 Bft) 0 min 6,7 km/h (2 Bft)
17.11.2009 11:52 16,2 C 11,9 C 0,1 UV-I 0,0 C 60 % 79 % 0 % 1010,0 hPa 0,0 l/m 2,4 km/h (1 Bft) 0 min 6,7 km/h (2 Bft)
17.11.2009 11:54 16,2 C 11,9 C 0,2 UV-I 0,0 C 60 % 79 % 0 % 1009,9 hPa 0,0 l/m 2,4 km/h (1 Bft) 0 min 4,6 km/h (1 Bft)
17.11.2009 11:56 16,2 C 11,9 C 0,2 UV-I 0,0 C 60 % 79 % 0 % 1009,9 hPa 0,0 l/m 3,1 km/h (1 Bft) 0 min 7,7 km/h (2 Bft)
17.11.2009 11:58 16,2 C 11,9 C 0,2 UV-I 0,0 C 60 % 79 % 0 % 1009,9 hPa 0,0 l/m 3,4 km/h (1 Bft) 0 min 7,7 km/h (2 Bft)
17.11.2009 12:00 16,2 C 11,9 C 0,2 UV-I 0,0 C 60 % 79 % 0 % 1009,9 hPa 0,0 l/m 3,1 km/h (1 Bft) 0 min 4,8 km/h (1 Bft)
17.11.2009 12:02 16,2 C 12,0 C 0,2 UV-I 0,0 C 60 % 79 % 0 % 1009,9 hPa 0,0 l/m 3,4 km/h (1 Bft) 0 min 2,9 km/h (1 Bft)
17.11.2009 12:04 16,2 C 12,0 C 0,2 UV-I 0,0 C 59 % 79 % 0 % 1009,9 hPa 0,0 l/m 3,4 km/h (1 Bft) 0 min 2,9 km/h (1 Bft)
17.11.2009 12:06 16,2 C 12,0 C 0,2 UV-I 0,0 C 59 % 78 % 0 % 1009,9 hPa 0,0 l/m 2,6 km/h (1 Bft) 0 min 2,9 km/h (1 Bft)
17.11.2009 12:08 16,2 C 11,9 C 0,2 UV-I 0,0 C 59 % 78 % 0 % 1009,9 hPa 0,0 l/m 2,4 km/h (1 Bft) 0 min 7,2 km/h (2 Bft)
17.11.2009 12:10 16,2 C 11,9 C 0,6 UV-I 0,1 C 59 % 78 % 3 % 1009,9 hPa 0,0 l/m 2,6 km/h (1 Bft) 0 min 15,4 km/h (3 Bft)
17.11.2009 12:12 16,2 C 12,0 C 0,6 UV-I 0,0 C 59 % 78 % 0 % 1009,9 hPa 0,0 l/m 2,6 km/h (1 Bft) 0 min 15,4 km/h (3 Bft)
17.11.2009 12:14 16,2 C 12,0 C 0,8 UV-I 0,1 C 59 % 78 % 3 % 1009,9 hPa 0,0 l/m 2,2 km/h (1 Bft) 0 min 4,1 km/h (1 Bft)
17.11.2009 12:16 16,2 C 12,0 C 0,8 UV-I 0,1 C 59 % 78 % 3 % 1009,9 hPa 0,0 l/m 2,9 km/h (1 Bft) 0 min 6,7 km/h (2 Bft)
17.11.2009 12:18 16,2 C 12,1 C 0,8 UV-I 0,0 C 59 % 77 % 0 % 1009,9 hPa 0,0 l/m 3,1 km/h (1 Bft) 0 min 6,7 km/h (2 Bft)
17.11.2009 12:20 16,2 C 12,0 C 0,8 UV-I 0,1 C 59 % 77 % 3 % 1009,9 hPa 0,0 l/m 2,9 km/h (1 Bft) 0 min 5,1 km/h (1 Bft)
17.11.2009 12:22 16,2 C 12,0 C 0,8 UV-I 0,2 C 59 % 77 % 6 % 1009,9 hPa 0,0 l/m 2,6 km/h (1 Bft) 0 min 5,1 km/h (1 Bft)
17.11.2009 12:24 16,2 C 12,0 C 0,7 UV-I 0,2 C 59 % 77 % 6 % 1009,9 hPa 0,0 l/m 3,4 km/h (1 Bft) 0 min 5,1 km/h (1 Bft)
17.11.2009 12:26 16,2 C 12,1 C 0,7 UV-I 0,1 C 59 % 77 % 3 % 1009,9 hPa 0,0 l/m 2,9 km/h (1 Bft) 0 min 5,1 km/h (1 Bft)
17.11.2009 12:28 16,2 C 12,1 C 0,7 UV-I 0,2 C 59 % 77 % 6 % 1009,9 hPa 0,0 l/m 2,2 km/h (1 Bft) 0 min 0,0 km/h (0 Bft)
17.11.2009 12:30 16,2 C 12,0 C 0,7 UV-I 0,3 C 59 % 77 % 9 % 1009,9 hPa 0,0 l/m 2,4 km/h (1 Bft) 0 min 3,6 km/h (1 Bft)
17.11.2009 12:32 16,2 C 12,0 C 0,7 UV-I 0,4 C 59 % 77 % 11 % 1009,9 hPa 0,0 l/m 2,2 km/h (1 Bft) 0 min 3,6 km/h (1 Bft)
17.11.2009 12:34 16,2 C 12,1 C 0,7 UV-I 0,4 C 59 % 77 % 11 % 1009,7 hPa 0,0 l/m 1,7 km/h (1 Bft) 0 min 0,0 km/h (0 Bft)
17.11.2009 12:36 16,2 C 12,0 C 0,7 UV-I 0,5 C 59 % 77 % 14 % 1009,7 hPa 0,0 l/m 1,4 km/h (1 Bft) 0 min 3,1 km/h (1 Bft)
17.11.2009 12:38 16,2 C 12,1 C 0,7 UV-I 0,4 C 59 % 77 % 11 % 1009,7 hPa 0,0 l/m 1,2 km/h (1 Bft) 0 min 3,1 km/h (1 Bft)
17.11.2009 12:40 16,2 C 12,1 C 0,8 UV-I 0,4 C 59 % 77 % 11 % 1009,7 hPa 0,0 l/m 1,4 km/h (1 Bft) 0 min 4,1 km/h (1 Bft)
17.11.2009 12:42 16,2 C 12,2 C 0,8 UV-I 0,4 C 59 % 77 % 11 % 1009,7 hPa 0,0 l/m 1,2 km/h (1 Bft) 0 min 4,1 km/h (1 Bft)
17.11.2009 12:44 16,2 C 12,1 C 0,7 UV-I 0,5 C 59 % 77 % 14 % 1009,7 hPa 0,0 l/m 1,7 km/h (1 Bft) 0 min 9,9 km/h (2 Bft)
17.11.2009 12:46 16,2 C 12,1 C 0,7 UV-I 0,5 C 59 % 77 % 14 % 1009,7 hPa 0,0 l/m 2,2 km/h (1 Bft) 0 min 9,9 km/h (2 Bft)
17.11.2009 12:48 16,3 C 12,2 C 0,7 UV-I 0,4 C 59 % 77 % 11 % 1009,7 hPa 0,0 l/m 2,4 km/h (1 Bft) 0 min 5,3 km/h (1 Bft)
17.11.2009 12:50 16,2 C 12,1 C 0,5 UV-I 0,5 C 59 % 77 % 14 % 1009,7 hPa 0,0 l/m 3,1 km/h (1 Bft) 0 min 4,3 km/h (1 Bft)
17.11.2009 12:52 16,2 C 12,1 C 0,5 UV-I 0,4 C 59 % 77 % 11 % 1009,7 hPa 0,0 l/m 3,1 km/h (1 Bft) 0 min 4,3 km/h (1 Bft)
17.11.2009 12:54 16,2 C 12,2 C 0,5 UV-I 0,3 C 58 % 76 % 9 % 1009,5 hPa 0,0 l/m 3,4 km/h (1 Bft) 0 min 5,5 km/h (1 Bft)
17.11.2009 12:56 16,2 C 12,2 C 0,5 UV-I 0,3 C 59 % 77 % 9 % 1009,5 hPa 0,0 l/m 2,9 km/h (1 Bft) 0 min 5,5 km/h (1 Bft)
17.11.2009 12:58 16,2 C 12,3 C 0,5 UV-I 0,2 C 58 % 77 % 6 % 1009,5 hPa 0,0 l/m 2,4 km/h (1 Bft) 0 min 3,6 km/h (1 Bft)
17.11.2009 13:00 16,2 C 12,3 C 0,6 UV-I 0,2 C 58 % 77 % 6 % 1009,5 hPa 0,0 l/m 2,2 km/h (1 Bft) 0 min 3,6 km/h (1 Bft)
17.11.2009 13:02 16,3 C 12,3 C 0,6 UV-I 0,2 C 58 % 76 % 6 % 1009,5 hPa 0,0 l/m 2,2 km/h (1 Bft) 0 min 6,7 km/h (2 Bft)
17.11.2009 13:04 16,3 C 12,3 C 0,7 UV-I 0,2 C 58 % 76 % 6 % 1009,5 hPa 0,0 l/m 2,2 km/h (1 Bft) 0 min 6,7 km/h (2 Bft)
17.11.2009 13:09 16,3 C 12,3 C 0,8 UV-I 0,3 C 58 % 76 % 9 % 1009,5 hPa 0,0 l/m 1,4 km/h (1 Bft) 0 min 0,0 km/h (0 Bft)
17.11.2009 13:14 16,3 C 12,3 C 0,9 UV-I 0,4 C 58 % 76 % 11 % 1009,2 hPa 0,0 l/m 1,7 km/h (1 Bft) 0 min 0,0 km/h (0 Bft)
17.11.2009 13:16 16,3 C 12,3 C 0,9 UV-I 0,4 C 58 % 75 % 11 % 1009,2 hPa 0,0 l/m 1,9 km/h (1 Bft) 0 min 4,1 km/h (1 Bft)
17.11.2009 13:18 16,2 C 12,3 C 0,9 UV-I 0,3 C 58 % 75 % 9 % 1009,2 hPa 0,0 l/m 2,4 km/h (1 Bft) 0 min 4,1 km/h (1 Bft)
17.11.2009 13:20 16,3 C 12,3 C 0,7 UV-I 0,3 C 58 % 75 % 9 % 1009,2 hPa 0,0 l/m 2,6 km/h (1 Bft) 0 min 3,8 km/h (1 Bft)
17.11.2009 13:22 16,3 C 12,3 C 0,7 UV-I 0,3 C 58 % 75 % 9 % 1009,2 hPa 0,0 l/m 2,4 km/h (1 Bft) 0 min 4,3 km/h (1 Bft)
17.11.2009 13:24 16,3 C 12,4 C 0,7 UV-I 0,3 C 58 % 75 % 9 % 1009,2 hPa 0,0 l/m 2,9 km/h (1 Bft) 0 min 5,8 km/h (2 Bft)
17.11.2009 13:26 16,3 C 12,4 C 0,7 UV-I 0,3 C 58 % 75 % 9 % 1009,2 hPa 0,0 l/m 3,4 km/h (1 Bft) 0 min 6,5 km/h (2 Bft)
17.11.2009 13:28 16,3 C 12,3 C 0,7 UV-I 0,3 C 58 % 75 % 9 % 1009,2 hPa 0,0 l/m 3,8 km/h (1 Bft) 0 min 6,5 km/h (2 Bft)
17.11.2009 13:30 16,3 C 12,4 C 0,6 UV-I 0,2 C 58 % 75 % 6 % 1009,2 hPa 0,0 l/m 4,1 km/h (1 Bft) 0 min 9,6 km/h (2 Bft)
17.11.2009 13:32 16,3 C 12,5 C 0,6 UV-I 0,1 C 58 % 75 % 3 % 1009,2 hPa 0,0 l/m 4,6 km/h (1 Bft) 0 min 9,6 km/h (2 Bft)
17.11.2009 13:34 16,3 C 12,4 C 0,9 UV-I 0,2 C 58 % 75 % 6 % 1009,4 hPa 0,0 l/m 5,1 km/h (1 Bft) 0 min 5,3 km/h (1 Bft)
17.11.2009 13:36 16,3 C 12,5 C 0,9 UV-I 0,1 C 58 % 75 % 3 % 1009,4 hPa 0,0 l/m 4,8 km/h (1 Bft) 0 min 8,2 km/h (2 Bft)
17.11.2009 13:38 16,3 C 12,4 C 0,9 UV-I 0,2 C 58 % 75 % 6 % 1009,4 hPa 0,0 l/m 5,1 km/h (1 Bft) 0 min 8,7 km/h (2 Bft)
17.11.2009 13:40 16,3 C 12,4 C 0,9 UV-I 0,3 C 58 % 75 % 9 % 1009,4 hPa 0,0 l/m 5,3 km/h (1 Bft) 0 min 8,7 km/h (2 Bft)
17.11.2009 13:42 16,3 C 12,4 C 0,9 UV-I 0,3 C 58 % 74 % 9 % 1009,4 hPa 0,0 l/m 5,3 km/h (1 Bft) 0 min 12,0 km/h (2 Bft)
17.11.2009 13:44 16,3 C 12,4 C 0,8 UV-I 0,3 C 58 % 74 % 9 % 1009,4 hPa 0,0 l/m 5,3 km/h (1 Bft) 0 min 12,0 km/h (2 Bft)
17.11.2009 13:46 16,3 C 12,4 C 0,8 UV-I 0,3 C 58 % 74 % 9 % 1009,4 hPa 0,0 l/m 5,3 km/h (1 Bft) 0 min 7,2 km/h (2 Bft)
17.11.2009 13:48 16,3 C 12,4 C 0,8 UV-I 0,3 C 58 % 75 % 9 % 1009,4 hPa 0,0 l/m 5,1 km/h (1 Bft) 0 min 5,5 km/h (1 Bft)
17.11.2009 13:50 16,3 C 12,5 C 0,7 UV-I 0,2 C 58 % 75 % 6 % 1009,4 hPa 0,0 l/m 4,8 km/h (1 Bft) 0 min 9,9 km/h (2 Bft)
17.11.2009 13:52 16,3 C 12,4 C 0,7 UV-I 0,3 C 58 % 74 % 9 % 1009,4 hPa 0,0 l/m 5,3 km/h (1 Bft) 0 min 9,9 km/h (2 Bft)
17.11.2009 13:54 16,3 C 12,4 C 0,8 UV-I 0,3 C 58 % 74 % 9 % 1009,6 hPa 0,0 l/m 5,3 km/h (1 Bft) 0 min 7,9 km/h (2 Bft)
17.11.2009 13:56 16,3 C 12,5 C 0,8 UV-I 0,2 C 58 % 74 % 6 % 1009,6 hPa 0,0 l/m 5,1 km/h (1 Bft) 0 min 5,5 km/h (1 Bft)
17.11.2009 13:58 16,3 C 12,5 C 0,8 UV-I 0,2 C 58 % 74 % 6 % 1009,6 hPa 0,0 l/m 5,1 km/h (1 Bft) 0 min 7,9 km/h (2 Bft)
17.11.2009 14:00 16,3 C 12,5 C 0,9 UV-I 0,2 C 58 % 74 % 6 % 1009,6 hPa 0,0 l/m 5,8 km/h (2 Bft) 0 min 8,7 km/h (2 Bft)
17.11.2009 14:02 16,3 C 12,5 C 0,9 UV-I 0,3 C 58 % 74 % 9 % 1009,6 hPa 0,0 l/m 5,5 km/h (1 Bft) 0 min 9,1 km/h (2 Bft)
17.11.2009 14:04 16,2 C 12,6 C 1,0 UV-I 0,3 C 58 % 74 % 9 % 1009,6 hPa 0,0 l/m 5,3 km/h (1 Bft) 0 min 9,1 km/h (2 Bft)
17.11.2009 14:06 16,3 C 12,6 C 1,0 UV-I 0,3 C 58 % 74 % 9 % 1009,6 hPa 0,0 l/m 5,3 km/h (1 Bft) 0 min 13,2 km/h (3 Bft)
17.11.2009 14:08 16,2 C 12,7 C 1,0 UV-I 0,3 C 58 % 74 % 9 % 1009,6 hPa 0,0 l/m 5,5 km/h (1 Bft) 0 min 13,2 km/h (3 Bft)
17.11.2009 14:10 16,2 C 12,7 C 1,0 UV-I 0,3 C 58 % 74 % 9 % 1009,6 hPa 0,0 l/m 4,8 km/h (1 Bft) 0 min 4,8 km/h (1 Bft)
17.11.2009 14:12 16,4 C 12,6 C 1,0 UV-I 0,4 C 58 % 74 % 11 % 1009,6 hPa 0,0 l/m 4,8 km/h (1 Bft) 0 min 8,7 km/h (2 Bft)
17.11.2009 14:14 16,4 C 12,7 C 0,7 UV-I 0,3 C 58 % 73 % 9 % 1009,2 hPa 0,0 l/m 5,1 km/h (1 Bft) 0 min 8,7 km/h (2 Bft)
17.11.2009 14:16 16,4 C 12,7 C 0,7 UV-I 0,3 C 58 % 74 % 9 % 1009,2 hPa 0,0 l/m 5,1 km/h (1 Bft) 0 min 8,4 km/h (2 Bft)
17.11.2009 14:18 16,2 C 12,6 C 0,7 UV-I 0,4 C 58 % 74 % 11 % 1009,2 hPa 0,0 l/m 4,8 km/h (1 Bft) 0 min 4,6 km/h (1 Bft)
17.11.2009 14:20 16,4 C 12,7 C 0,6 UV-I 0,3 C 58 % 74 % 9 % 1009,2 hPa 0,0 l/m 4,8 km/h (1 Bft) 0 min 5,1 km/h (1 Bft)
17.11.2009 14:22 16,4 C 12,7 C 0,6 UV-I 0,3 C 58 % 74 % 9 % 1009,2 hPa 0,0 l/m 5,1 km/h (1 Bft) 0 min 5,5 km/h (1 Bft)
17.11.2009 14:24 16,4 C 12,6 C 0,6 UV-I 0,3 C 58 % 74 % 9 % 1009,2 hPa 0,0 l/m 4,6 km/h (1 Bft) 0 min 7,5 km/h (2 Bft)
17.11.2009 14:26 16,4 C 12,7 C 0,6 UV-I 0,2 C 58 % 74 % 6 % 1009,2 hPa 0,0 l/m 4,8 km/h (1 Bft) 0 min 9,1 km/h (2 Bft)
17.11.2009 14:28 16,4 C 12,7 C 0,6 UV-I 0,2 C 58 % 74 % 6 % 1009,2 hPa 0,0 l/m 4,8 km/h (1 Bft) 0 min 9,1 km/h (2 Bft)
17.11.2009 14:30 16,4 C 12,6 C 0,6 UV-I 0,2 C 58 % 74 % 6 % 1009,2 hPa 0,0 l/m 5,5 km/h (1 Bft) 0 min 15,9 km/h (3 Bft)
17.11.2009 14:32 16,4 C 12,7 C 0,6 UV-I 0,1 C 58 % 74 % 3 % 1009,2 hPa 0,0 l/m 4,8 km/h (1 Bft) 0 min 15,9 km/h (3 Bft)
17.11.2009 14:34 16,4 C 12,7 C 0,6 UV-I 0,1 C 58 % 74 % 3 % 1009,2 hPa 0,0 l/m 4,8 km/h (1 Bft) 0 min 4,3 km/h (1 Bft)
17.11.2009 14:36 16,4 C 12,7 C 0,6 UV-I 0,1 C 58 % 74 % 3 % 1009,2 hPa 0,0 l/m 4,1 km/h (1 Bft) 0 min 4,3 km/h (1 Bft)
17.11.2009 14:38 16,4 C 12,7 C 0,6 UV-I 0,1 C 58 % 75 % 3 % 1009,2 hPa 0,0 l/m 3,8 km/h (1 Bft) 0 min 5,3 km/h (1 Bft)
17.11.2009 14:40 16,4 C 12,7 C 0,5 UV-I 0,1 C 58 % 75 % 3 % 1009,2 hPa 0,0 l/m 3,6 km/h (1 Bft) 0 min 8,2 km/h (2 Bft)
17.11.2009 14:42 16,4 C 12,7 C 0,5 UV-I 0,1 C 58 % 75 % 3 % 1009,2 hPa 0,0 l/m 2,9 km/h (1 Bft) 0 min 8,2 km/h (2 Bft)
17.11.2009 14:44 16,4 C 12,7 C 0,6 UV-I 0,1 C 58 % 75 % 3 % 1009,2 hPa 0,0 l/m 2,9 km/h (1 Bft) 0 min 5,1 km/h (1 Bft)
17.11.2009 14:46 16,4 C 12,7 C 0,6 UV-I 0,2 C 58 % 74 % 6 % 1009,2 hPa 0,0 l/m 3,4 km/h (1 Bft) 0 min 7,9 km/h (2 Bft)
17.11.2009 14:48 16,4 C 12,7 C 0,6 UV-I 0,3 C 58 % 75 % 9 % 1009,2 hPa 0,0 l/m 3,6 km/h (1 Bft) 0 min 7,9 km/h (2 Bft)
17.11.2009 14:50 16,4 C 12,7 C 0,6 UV-I 0,3 C 58 % 75 % 9 % 1009,2 hPa 0,0 l/m 3,6 km/h (1 Bft) 0 min 4,8 km/h (1 Bft)
17.11.2009 14:52 16,4 C 12,7 C 0,6 UV-I 0,4 C 58 % 74 % 11 % 1009,2 hPa 0,0 l/m 4,1 km/h (1 Bft) 0 min 11,3 km/h (2 Bft)
17.11.2009 14:54 16,4 C 12,7 C 0,5 UV-I 0,4 C 58 % 75 % 11 % 1009,4 hPa 0,0 l/m 4,1 km/h (1 Bft) 0 min 11,3 km/h (2 Bft)
17.11.2009 14:56 16,4 C 12,7 C 0,5 UV-I 0,4 C 58 % 74 % 11 % 1009,4 hPa 0,0 l/m 4,1 km/h (1 Bft) 0 min 4,1 km/h (1 Bft)
17.11.2009 14:58 16,4 C 12,8 C 0,5 UV-I 0,3 C 58 % 74 % 9 % 1009,4 hPa 0,0 l/m 4,3 km/h (1 Bft) 0 min 4,1 km/h (1 Bft)
17.11.2009 15:00 16,4 C 12,8 C 0,5 UV-I 0,3 C 58 % 74 % 9 % 1009,4 hPa 0,0 l/m 4,6 km/h (1 Bft) 0 min 8,9 km/h (2 Bft)
17.11.2009 15:02 16,4 C 12,7 C 0,5 UV-I 0,3 C 58 % 75 % 9 % 1009,4 hPa 0,0 l/m 4,3 km/h (1 Bft) 0 min 8,9 km/h (2 Bft)
17.11.2009 15:04 16,4 C 12,7 C 0,1 UV-I 0,2 C 58 % 75 % 6 % 1009,4 hPa 0,0 l/m 4,1 km/h (1 Bft) 0 min 5,1 km/h (1 Bft)
17.11.2009 15:06 16,4 C 12,7 C 0,1 UV-I 0,0 C 58 % 75 % 0 % 1009,4 hPa 0,0 l/m 4,8 km/h (1 Bft) 0 min 7,7 km/h (2 Bft)
17.11.2009 15:08 16,4 C 12,7 C 0,1 UV-I 0,0 C 58 % 75 % 0 % 1009,4 hPa 0,0 l/m 4,8 km/h (1 Bft) 0 min 7,7 km/h (2 Bft)
17.11.2009 15:10 16,4 C 12,7 C 0,1 UV-I 0,0 C 58 % 75 % 0 % 1009,4 hPa 0,0 l/m 4,8 km/h (1 Bft) 0 min 10,1 km/h (2 Bft)
17.11.2009 15:12 16,4 C 12,7 C 0,1 UV-I 0,0 C 58 % 75 % 0 % 1009,4 hPa 0,0 l/m 4,6 km/h (1 Bft) 0 min 10,1 km/h (2 Bft)
17.11.2009 15:14 16,4 C 12,7 C 0,0 UV-I 0,0 C 58 % 75 % 0 % 1009,6 hPa 0,0 l/m 4,3 km/h (1 Bft) 0 min 3,8 km/h (1 Bft)
17.11.2009 15:16 16,4 C 12,6 C 0,0 UV-I 0,0 C 58 % 75 % 0 % 1009,6 hPa 0,0 l/m 4,3 km/h (1 Bft) 0 min 7,2 km/h (2 Bft)
17.11.2009 15:18 16,4 C 12,7 C 0,0 UV-I 0,0 C 58 % 75 % 0 % 1009,6 hPa 0,0 l/m 4,1 km/h (1 Bft) 0 min 7,2 km/h (2 Bft)
17.11.2009 15:20 16,4 C 12,7 C 0,0 UV-I 0,0 C 58 % 75 % 0 % 1009,6 hPa 0,0 l/m 4,1 km/h (1 Bft) 0 min 7,9 km/h (2 Bft)
17.11.2009 15:22 16,4 C 12,7 C 0,0 UV-I 0,0 C 58 % 75 % 0 % 1009,6 hPa 0,0 l/m 4,3 km/h (1 Bft) 0 min 7,9 km/h (2 Bft)
17.11.2009 15:24 16,4 C 12,7 C 0,1 UV-I 0,0 C 58 % 75 % 0 % 1009,6 hPa 0,0 l/m 4,3 km/h (1 Bft) 0 min 6,3 km/h (2 Bft)
17.11.2009 15:26 16,2 C 12,6 C 0,1 UV-I 0,0 C 58 % 75 % 0 % 1009,6 hPa 0,0 l/m 4,3 km/h (1 Bft) 0 min 7,7 km/h (2 Bft)
17.11.2009 15:28 16,4 C 12,7 C 0,1 UV-I 0,0 C 58 % 75 % 0 % 1009,6 hPa 0,0 l/m 4,3 km/h (1 Bft) 0 min 7,7 km/h (2 Bft)
17.11.2009 15:30 16,2 C 12,7 C 0,0 UV-I 0,0 C 58 % 75 % 0 % 1009,6 hPa 0,0 l/m 4,8 km/h (1 Bft) 0 min 7,7 km/h (2 Bft)
17.11.2009 15:32 16,4 C 12,7 C 0,0 UV-I 0,0 C 58 % 75 % 0 % 1009,6 hPa 0,0 l/m 4,6 km/h (1 Bft) 0 min 7,7 km/h (2 Bft)
17.11.2009 15:34 16,2 C 12,7 C 0,1 UV-I 0,0 C 58 % 75 % 0 % 1009,9 hPa 0,0 l/m 4,6 km/h (1 Bft) 0 min 5,5 km/h (1 Bft)
17.11.2009 15:36 16,2 C 12,5 C 0,1 UV-I 0,0 C 58 % 75 % 0 % 1009,9 hPa 0,0 l/m 5,1 km/h (1 Bft) 0 min 9,1 km/h (2 Bft)
17.11.2009 15:38 16,3 C 12,5 C 0,1 UV-I 0,0 C 58 % 75 % 0 % 1009,9 hPa 0,0 l/m 4,8 km/h (1 Bft) 0 min 9,1 km/h (2 Bft)
17.11.2009 15:40 16,3 C 12,5 C 0,0 UV-I 0,0 C 58 % 75 % 0 % 1009,9 hPa 0,0 l/m 4,6 km/h (1 Bft) 0 min 6,5 km/h (2 Bft)
17.11.2009 15:42 16,3 C 12,5 C 0,0 UV-I 0,0 C 58 % 75 % 0 % 1009,9 hPa 0,0 l/m 5,1 km/h (1 Bft) 0 min 10,6 km/h (2 Bft)
17.11.2009 15:44 16,3 C 12,5 C 0,0 UV-I 0,0 C 58 % 75 % 0 % 1009,9 hPa 0,0 l/m 5,1 km/h (1 Bft) 0 min 10,6 km/h (2 Bft)
17.11.2009 15:46 16,3 C 12,5 C 0,0 UV-I 0,0 C 58 % 75 % 0 % 1009,9 hPa 0,0 l/m 4,6 km/h (1 Bft) 0 min 6,7 km/h (2 Bft)
17.11.2009 15:48 16,3 C 12,5 C 0,0 UV-I 0,0 C 58 % 75 % 0 % 1009,9 hPa 0,0 l/m 4,1 km/h (1 Bft) 0 min 6,7 km/h (2 Bft)
17.11.2009 15:50 16,3 C 12,5 C 0,0 UV-I 0,0 C 58 % 76 % 0 % 1009,9 hPa 0,0 l/m 3,6 km/h (1 Bft) 0 min 4,6 km/h (1 Bft)
17.11.2009 15:52 16,2 C 12,5 C 0,0 UV-I 0,0 C 58 % 76 % 0 % 1009,9 hPa 0,0 l/m 3,6 km/h (1 Bft) 0 min 3,8 km/h (1 Bft)
17.11.2009 15:54 16,2 C 12,4 C 0,0 UV-I 0,0 C 58 % 76 % 0 % 1010,3 hPa 0,0 l/m 3,6 km/h (1 Bft) 0 min 5,8 km/h (2 Bft)
17.11.2009 15:56 16,2 C 12,4 C 0,0 UV-I 0,0 C 58 % 76 % 0 % 1010,3 hPa 0,0 l/m 4,1 km/h (1 Bft) 0 min 8,2 km/h (2 Bft)
17.11.2009 15:58 16,2 C 12,5 C 0,0 UV-I 0,0 C 58 % 76 % 0 % 1010,3 hPa 0,0 l/m 4,3 km/h (1 Bft) 0 min 8,2 km/h (2 Bft)
17.11.2009 16:00 16,2 C 12,5 C 0,0 UV-I 0,0 C 58 % 76 % 0 % 1010,3 hPa 0,0 l/m 4,8 km/h (1 Bft) 0 min 5,8 km/h (2 Bft)
17.11.2009 16:02 16,2 C 12,5 C 0,0 UV-I 0,0 C 58 % 76 % 0 % 1010,3 hPa 0,0 l/m 4,8 km/h (1 Bft) 0 min 3,8 km/h (1 Bft)
17.11.2009 16:04 16,2 C 12,5 C 0,0 UV-I 0,0 C 58 % 76 % 0 % 1010,3 hPa 0,0 l/m 4,6 km/h (1 Bft) 0 min 5,8 km/h (2 Bft)
17.11.2009 16:06 16,2 C 12,4 C 0,0 UV-I 0,0 C 58 % 76 % 0 % 1010,3 hPa 0,0 l/m 4,8 km/h (1 Bft) 0 min 5,8 km/h (2 Bft)
17.11.2009 16:08 16,2 C 12,4 C 0,0 UV-I 0,0 C 58 % 76 % 0 % 1010,3 hPa 0,0 l/m 4,6 km/h (1 Bft) 0 min 7,2 km/h (2 Bft)
17.11.2009 16:10 16,2 C 12,3 C 0,0 UV-I 0,0 C 58 % 76 % 0 % 1010,3 hPa 0,0 l/m 4,6 km/h (1 Bft) 0 min 7,2 km/h (2 Bft)
17.11.2009 16:12 16,2 C 12,3 C 0,0 UV-I 0,0 C 58 % 76 % 0 % 1010,3 hPa 0,0 l/m 4,6 km/h (1 Bft) 0 min 5,1 km/h (1 Bft)
17.11.2009 16:14 16,2 C 12,3 C 0,0 UV-I 0,0 C 58 % 77 % 0 % 1010,4 hPa 0,0 l/m 4,6 km/h (1 Bft) 0 min 7,9 km/h (2 Bft)
17.11.2009 16:16 16,2 C 12,3 C 0,0 UV-I 0,0 C 58 % 77 % 0 % 1010,4 hPa 0,0 l/m 4,6 km/h (1 Bft) 0 min 7,9 km/h (2 Bft)
17.11.2009 16:18 16,2 C 12,3 C 0,0 UV-I 0,0 C 58 % 77 % 0 % 1010,4 hPa 0,0 l/m 4,3 km/h (1 Bft) 0 min 7,5 km/h (2 Bft)
17.11.2009 16:20 16,1 C 12,3 C 0,0 UV-I 0,0 C 58 % 77 % 0 % 1010,4 hPa 0,0 l/m 4,3 km/h (1 Bft) 0 min 7,5 km/h (2 Bft)
17.11.2009 16:22 16,2 C 12,3 C 0,0 UV-I 0,0 C 58 % 77 % 0 % 1010,4 hPa 0,0 l/m 4,6 km/h (1 Bft) 0 min 10,1 km/h (2 Bft)
17.11.2009 16:24 16,1 C 12,3 C 0,0 UV-I 0,0 C 58 % 77 % 0 % 1010,4 hPa 0,0 l/m 5,1 km/h (1 Bft) 0 min 10,1 km/h (2 Bft)
17.11.2009 16:26 16,1 C 12,3 C 0,0 UV-I 0,0 C 59 % 77 % 0 % 1010,4 hPa 0,0 l/m 5,1 km/h (1 Bft) 0 min 6,5 km/h (2 Bft)
17.11.2009 16:28 16,1 C 12,2 C 0,0 UV-I 0,0 C 58 % 77 % 0 % 1010,4 hPa 0,0 l/m 5,1 km/h (1 Bft) 0 min 9,1 km/h (2 Bft)
17.11.2009 16:30 16,1 C 12,3 C 0,0 UV-I 0,0 C 58 % 77 % 0 % 1010,4 hPa 0,0 l/m 5,1 km/h (1 Bft) 0 min 9,1 km/h (2 Bft)
17.11.2009 16:32 16,1 C 12,2 C 0,0 UV-I 0,0 C 59 % 77 % 0 % 1010,4 hPa 0,0 l/m 4,8 km/h (1 Bft) 0 min 4,8 km/h (1 Bft)
17.11.2009 16:34 16,1 C 12,2 C 0,0 UV-I 0,0 C 59 % 77 % 0 % 1010,6 hPa 0,0 l/m 4,6 km/h (1 Bft) 0 min 8,7 km/h (2 Bft)
17.11.2009 16:36 16,1 C 12,1 C 0,0 UV-I 0,0 C 59 % 77 % 0 % 1010,6 hPa 0,0 l/m 4,6 km/h (1 Bft) 0 min 9,1 km/h (2 Bft)
17.11.2009 16:38 16,1 C 12,1 C 0,0 UV-I 0,0 C 59 % 78 % 0 % 1010,6 hPa 0,0 l/m 4,8 km/h (1 Bft) 0 min 4,3 km/h (1 Bft)
17.11.2009 16:40 15,9 C 12,1 C 0,0 UV-I 0,0 C 59 % 78 % 0 % 1010,6 hPa 0,0 l/m 5,1 km/h (1 Bft) 0 min 8,9 km/h (2 Bft)
17.11.2009 16:42 15,9 C 12,0 C 0,0 UV-I 0,0 C 59 % 79 % 0 % 1010,6 hPa 0,0 l/m 5,3 km/h (1 Bft) 0 min 8,9 km/h (2 Bft)
17.11.2009 16:44 15,9 C 12,0 C 0,0 UV-I 0,0 C 59 % 79 % 0 % 1010,6 hPa 0,0 l/m 4,8 km/h (1 Bft) 0 min 7,0 km/h (2 Bft)
17.11.2009 16:46 15,9 C 12,0 C 0,0 UV-I 0,0 C 59 % 79 % 0 % 1010,6 hPa 0,0 l/m 4,6 km/h (1 Bft) 0 min 6,0 km/h (2 Bft)
17.11.2009 16:48 15,9 C 12,0 C 0,0 UV-I 0,0 C 59 % 79 % 0 % 1010,6 hPa 0,0 l/m 3,8 km/h (1 Bft) 0 min 6,0 km/h (2 Bft)
17.11.2009 16:50 15,9 C 12,0 C 0,0 UV-I 0,0 C 59 % 79 % 0 % 1010,6 hPa 0,0 l/m 4,1 km/h (1 Bft) 0 min 6,3 km/h (2 Bft)
17.11.2009 16:52 15,9 C 11,9 C 0,0 UV-I 0,0 C 59 % 80 % 0 % 1010,6 hPa 0,0 l/m 3,1 km/h (1 Bft) 0 min 6,3 km/h (2 Bft)
17.11.2009 16:54 16,0 C 11,9 C 0,0 UV-I 0,0 C 59 % 80 % 0 % 1010,9 hPa 0,0 l/m 2,9 km/h (1 Bft) 0 min 9,4 km/h (2 Bft)
17.11.2009 16:56 16,0 C 11,8 C 0,0 UV-I 0,0 C 59 % 80 % 0 % 1010,9 hPa 0,0 l/m 3,1 km/h (1 Bft) 0 min 9,4 km/h (2 Bft)
17.11.2009 16:58 16,0 C 11,8 C 0,0 UV-I 0,0 C 60 % 80 % 0 % 1010,9 hPa 0,0 l/m 2,9 km/h (1 Bft) 0 min 4,8 km/h (1 Bft)
17.11.2009 17:00 16,0 C 11,9 C 0,0 UV-I 0,0 C 60 % 80 % 0 % 1010,9 hPa 0,0 l/m 3,1 km/h (1 Bft) 0 min 4,8 km/h (1 Bft)
17.11.2009 17:02 16,0 C 11,9 C 0,0 UV-I 0,0 C 60 % 81 % 0 % 1010,9 hPa 0,0 l/m 2,6 km/h (1 Bft) 0 min 5,3 km/h (1 Bft)
17.11.2009 17:04 16,0 C 11,8 C 0,0 UV-I 0,0 C 60 % 80 % 0 % 1010,9 hPa 0,0 l/m 3,1 km/h (1 Bft) 0 min 5,3 km/h (1 Bft)
17.11.2009 17:06 16,0 C 11,7 C 0,0 UV-I 0,0 C 60 % 80 % 0 % 1010,9 hPa 0,0 l/m 2,6 km/h (1 Bft) 0 min 5,1 km/h (1 Bft)
17.11.2009 17:08 16,0 C 11,7 C 0,0 UV-I 0,0 C 60 % 80 % 0 % 1010,9 hPa 0,0 l/m 2,4 km/h (1 Bft) 0 min 5,1 km/h (1 Bft)
17.11.2009 17:10 16,0 C 11,7 C 0,0 UV-I 0,0 C 60 % 81 % 0 % 1010,9 hPa 0,0 l/m 2,2 km/h (1 Bft) 0 min 2,6 km/h (1 Bft)
17.11.2009 17:12 16,0 C 11,6 C 0,0 UV-I 0,0 C 60 % 81 % 0 % 1010,9 hPa 0,0 l/m 2,2 km/h (1 Bft) 0 min 3,8 km/h (1 Bft)
17.11.2009 17:14 16,0 C 11,6 C 0,0 UV-I 0,0 C 60 % 82 % 0 % 1011,1 hPa 0,0 l/m 2,2 km/h (1 Bft) 0 min 3,8 km/h (1 Bft)
17.11.2009 17:16 15,8 C 11,6 C 0,0 UV-I 0,0 C 60 % 82 % 0 % 1011,1 hPa 0,0 l/m 1,4 km/h (1 Bft) 0 min 2,6 km/h (1 Bft)
17.11.2009 17:18 16,0 C 11,6 C 0,0 UV-I 0,0 C 60 % 82 % 0 % 1011,1 hPa 0,0 l/m 1,4 km/h (1 Bft) 0 min 4,8 km/h (1 Bft)
17.11.2009 17:20 15,8 C 11,6 C 0,0 UV-I 0,0 C 61 % 82 % 0 % 1011,1 hPa 0,0 l/m 1,2 km/h (1 Bft) 0 min 4,8 km/h (1 Bft)
17.11.2009 17:22 15,8 C 11,5 C 0,0 UV-I 0,0 C 61 % 82 % 0 % 1011,1 hPa 0,0 l/m 1,2 km/h (1 Bft) 0 min 3,8 km/h (1 Bft)
17.11.2009 17:24 15,8 C 11,5 C 0,0 UV-I 0,0 C 61 % 82 % 0 % 1011,1 hPa 0,0 l/m 1,4 km/h (1 Bft) 0 min 10,1 km/h (2 Bft)
17.11.2009 17:26 15,9 C 11,5 C 0,0 UV-I 0,0 C 61 % 83 % 0 % 1011,1 hPa 0,0 l/m 1,9 km/h (1 Bft) 0 min 10,1 km/h (2 Bft)
17.11.2009 17:28 15,9 C 11,5 C 0,0 UV-I 0,0 C 61 % 83 % 0 % 1011,1 hPa 0,0 l/m 1,9 km/h (1 Bft) 0 min 5,3 km/h (1 Bft)
17.11.2009 17:30 15,9 C 11,4 C 0,0 UV-I 0,0 C 61 % 83 % 0 % 1011,1 hPa 0,0 l/m 1,9 km/h (1 Bft) 0 min 5,3 km/h (1 Bft)
17.11.2009 17:32 15,9 C 11,5 C 0,0 UV-I 0,0 C 61 % 83 % 0 % 1011,1 hPa 0,0 l/m 1,9 km/h (1 Bft) 0 min 3,1 km/h (1 Bft)
17.11.2009 17:34 15,9 C 11,5 C 0,0 UV-I 0,0 C 61 % 83 % 0 % 1011,2 hPa 0,0 l/m 2,2 km/h (1 Bft) 0 min 3,8 km/h (1 Bft)
17.11.2009 17:36 15,9 C 11,5 C 0,0 UV-I 0,0 C 61 % 83 % 0 % 1011,2 hPa 0,0 l/m 2,2 km/h (1 Bft) 0 min 6,7 km/h (2 Bft)
17.11.2009 17:38 15,9 C 11,4 C 0,0 UV-I 0,0 C 61 % 83 % 0 % 1011,2 hPa 0,0 l/m 1,9 km/h (1 Bft) 0 min 6,7 km/h (2 Bft)
17.11.2009 17:40 15,9 C 11,4 C 0,0 UV-I 0,0 C 61 % 83 % 0 % 1011,2 hPa 0,1 l/m 2,2 km/h (1 Bft) 0 min 5,5 km/h (1 Bft)
17.11.2009 17:42 15,9 C 11,3 C 0,0 UV-I 0,0 C 61 % 83 % 0 % 1011,2 hPa 0,0 l/m 2,4 km/h (1 Bft) 0 min 6,3 km/h (2 Bft)
17.11.2009 17:46 15,9 C 11,3 C 0,0 UV-I 0,0 C 61 % 83 % 0 % 1011,2 hPa 0,1 l/m 2,6 km/h (1 Bft) 0 min 6,3 km/h (2 Bft)
17.11.2009 17:48 15,9 C 11,3 C 0,0 UV-I 0,0 C 61 % 84 % 0 % 1011,2 hPa 0,0 l/m 2,6 km/h (1 Bft) 0 min 4,1 km/h (1 Bft)
17.11.2009 17:50 15,9 C 11,3 C 0,0 UV-I 0,0 C 61 % 84 % 0 % 1011,2 hPa 0,0 l/m 2,6 km/h (1 Bft) 0 min 4,6 km/h (1 Bft)
17.11.2009 17:52 15,9 C 11,2 C 0,0 UV-I 0,0 C 61 % 84 % 0 % 1011,2 hPa 0,0 l/m 3,1 km/h (1 Bft) 0 min 4,6 km/h (1 Bft)
17.11.2009 17:54 15,9 C 11,2 C 0,0 UV-I 0,0 C 61 % 84 % 0 % 1011,4 hPa 0,0 l/m 2,4 km/h (1 Bft) 0 min 3,1 km/h (1 Bft)
17.11.2009 17:56 15,9 C 11,3 C 0,0 UV-I 0,0 C 61 % 84 % 0 % 1011,4 hPa 0,0 l/m 2,6 km/h (1 Bft) 0 min 3,1 km/h (1 Bft)
17.11.2009 17:58 15,9 C 11,2 C 0,0 UV-I 0,0 C 61 % 84 % 0 % 1011,4 hPa 0,1 l/m 2,9 km/h (1 Bft) 0 min 3,4 km/h (1 Bft)
17.11.2009 18:02 15,8 C 11,2 C 0,0 UV-I 0,0 C 61 % 85 % 0 % 1011,4 hPa 0,0 l/m 2,9 km/h (1 Bft) 0 min 3,4 km/h (1 Bft)
17.11.2009 18:04 15,8 C 11,2 C 0,0 UV-I 0,0 C 61 % 85 % 0 % 1011,4 hPa 0,2 l/m 2,9 km/h (1 Bft) 0 min 4,3 km/h (1 Bft)
17.11.2009 18:06 15,8 C 11,1 C 0,0 UV-I 0,0 C 61 % 86 % 0 % 1011,4 hPa 0,0 l/m 3,1 km/h (1 Bft) 0 min 5,3 km/h (1 Bft)
17.11.2009 18:08 15,8 C 11,1 C 0,0 UV-I 0,0 C 61 % 86 % 0 % 1011,4 hPa 0,1 l/m 2,9 km/h (1 Bft) 0 min 5,3 km/h (1 Bft)
17.11.2009 18:10 15,8 C 11,1 C 0,0 UV-I 0,0 C 62 % 86 % 0 % 1011,4 hPa 0,3 l/m 3,1 km/h (1 Bft) 0 min 8,7 km/h (2 Bft)
17.11.2009 18:12 15,8 C 11,1 C 0,0 UV-I 0,0 C 62 % 86 % 0 % 1011,4 hPa 0,0 l/m 3,4 km/h (1 Bft) 0 min 14,7 km/h (3 Bft)
17.11.2009 18:14 15,8 C 10,9 C 0,0 UV-I 0,0 C 62 % 86 % 0 % 1012,1 hPa 0,3 l/m 4,1 km/h (1 Bft) 0 min 14,7 km/h (3 Bft)
17.11.2009 18:16 15,8 C 10,8 C 0,0 UV-I 0,0 C 62 % 86 % 0 % 1012,1 hPa 0,2 l/m 4,8 km/h (1 Bft) 0 min 6,5 km/h (2 Bft)
17.11.2009 18:18 15,8 C 10,9 C 0,0 UV-I 0,0 C 62 % 86 % 0 % 1012,1 hPa 0,0 l/m 4,6 km/h (1 Bft) 0 min 7,0 km/h (2 Bft)
17.11.2009 18:22 15,8 C 10,7 C 0,0 UV-I 0,0 C 62 % 87 % 0 % 1012,1 hPa 0,3 l/m 4,6 km/h (1 Bft) 0 min 7,0 km/h (2 Bft)
17.11.2009 18:24 15,8 C 10,7 C 0,0 UV-I 0,0 C 62 % 87 % 0 % 1012,1 hPa 0,0 l/m 4,3 km/h (1 Bft) 0 min 5,8 km/h (2 Bft)
17.11.2009 18:26 15,6 C 10,7 C 0,0 UV-I 0,0 C 62 % 87 % 0 % 1012,1 hPa 0,1 l/m 3,6 km/h (1 Bft) 0 min 4,8 km/h (1 Bft)
17.11.2009 18:28 15,6 C 10,5 C 0,0 UV-I 0,0 C 62 % 87 % 0 % 1012,1 hPa 0,1 l/m 3,8 km/h (1 Bft) 0 min 11,3 km/h (2 Bft)
17.11.2009 18:30 15,6 C 10,5 C 0,0 UV-I 0,0 C 62 % 87 % 0 % 1012,1 hPa 0,0 l/m 3,8 km/h (1 Bft) 0 min 11,3 km/h (2 Bft)
17.11.2009 18:32 15,6 C 10,4 C 0,0 UV-I 0,0 C 62 % 87 % 0 % 1012,1 hPa 0,2 l/m 3,6 km/h (1 Bft) 0 min 6,5 km/h (2 Bft)
17.11.2009 18:34 15,6 C 10,5 C 0,0 UV-I 0,0 C 62 % 87 % 0 % 1011,8 hPa 0,3 l/m 3,6 km/h (1 Bft) 0 min 9,1 km/h (2 Bft)
17.11.2009 18:36 15,7 C 10,4 C 0,0 UV-I 0,0 C 62 % 87 % 0 % 1011,8 hPa 0,0 l/m 3,8 km/h (1 Bft) 0 min 9,1 km/h (2 Bft)
17.11.2009 18:38 15,6 C 10,3 C 0,0 UV-I 0,0 C 62 % 87 % 0 % 1011,8 hPa 0,0 l/m 4,3 km/h (1 Bft) 0 min 8,2 km/h (2 Bft)
17.11.2009 18:40 15,6 C 10,3 C 0,0 UV-I 0,0 C 62 % 87 % 0 % 1011,8 hPa 0,0 l/m 3,6 km/h (1 Bft) 0 min 6,3 km/h (2 Bft)
17.11.2009 18:42 15,6 C 10,2 C 0,0 UV-I 0,0 C 62 % 87 % 0 % 1011,8 hPa 0,0 l/m 3,4 km/h (1 Bft) 0 min 2,4 km/h (1 Bft)
17.11.2009 18:44 15,6 C 10,3 C 0,0 UV-I 0,0 C 62 % 87 % 0 % 1011,8 hPa 0,0 l/m 3,6 km/h (1 Bft) 0 min 5,1 km/h (1 Bft)
17.11.2009 18:46 15,6 C 10,1 C 0,0 UV-I 0,0 C 62 % 87 % 0 % 1011,8 hPa 0,0 l/m 3,4 km/h (1 Bft) 0 min 5,1 km/h (1 Bft)
17.11.2009 18:48 15,6 C 10,1 C 0,0 UV-I 0,0 C 62 % 87 % 0 % 1011,8 hPa 0,0 l/m 2,6 km/h (1 Bft) 0 min 3,6 km/h (1 Bft)
17.11.2009 18:50 15,6 C 10,1 C 0,0 UV-I 0,0 C 62 % 87 % 0 % 1011,8 hPa 0,0 l/m 2,4 km/h (1 Bft) 0 min 5,3 km/h (1 Bft)
17.11.2009 18:52 15,6 C 10,0 C 0,0 UV-I 0,0 C 62 % 88 % 0 % 1011,8 hPa 0,0 l/m 2,2 km/h (1 Bft) 0 min 0,0 km/h (0 Bft)
17.11.2009 18:54 15,6 C 10,0 C 0,0 UV-I 0,0 C 62 % 88 % 0 % 1011,8 hPa 0,0 l/m 1,9 km/h (1 Bft) 0 min 6,0 km/h (2 Bft)
17.11.2009 18:56 15,6 C 10,1 C 0,0 UV-I 0,0 C 62 % 88 % 0 % 1011,8 hPa 0,0 l/m 2,2 km/h (1 Bft) 0 min 7,5 km/h (2 Bft)
17.11.2009 18:58 15,6 C 10,0 C 0,0 UV-I 0,0 C 62 % 88 % 0 % 1011,8 hPa 0,0 l/m 2,6 km/h (1 Bft) 0 min 7,5 km/h (2 Bft)
17.11.2009 19:00 15,6 C 10,0 C 0,0 UV-I 0,0 C 62 % 88 % 0 % 1011,8 hPa 0,0 l/m 2,9 km/h (1 Bft) 0 min 6,3 km/h (2 Bft)
17.11.2009 19:02 15,6 C 9,9 C 0,0 UV-I 0,0 C 62 % 88 % 0 % 1011,8 hPa 0,0 l/m 2,6 km/h (1 Bft) 0 min 3,8 km/h (1 Bft)
17.11.2009 19:04 15,6 C 9,9 C 0,0 UV-I 0,0 C 62 % 88 % 0 % 1011,8 hPa 0,0 l/m 2,6 km/h (1 Bft) 0 min 3,8 km/h (1 Bft)
17.11.2009 19:06 15,6 C 9,8 C 0,0 UV-I 0,0 C 62 % 88 % 0 % 1011,8 hPa 0,0 l/m 2,4 km/h (1 Bft) 0 min 2,6 km/h (1 Bft)
17.11.2009 19:10 15,6 C 9,9 C 0,0 UV-I 0,0 C 63 % 88 % 0 % 1011,8 hPa 0,0 l/m 1,0 km/h (0 Bft) 0 min 2,4 km/h (1 Bft)
17.11.2009 19:14 15,6 C 9,9 C 0,0 UV-I 0,0 C 63 % 89 % 0 % 1012,3 hPa 0,0 l/m 0,7 km/h (0 Bft) 0 min 4,6 km/h (1 Bft)
17.11.2009 19:16 15,6 C 9,8 C 0,0 UV-I 0,0 C 63 % 89 % 0 % 1012,3 hPa 0,0 l/m 0,7 km/h (0 Bft) 0 min 3,1 km/h (1 Bft)
17.11.2009 19:18 15,6 C 9,7 C 0,0 UV-I 0,0 C 63 % 89 % 0 % 1012,3 hPa 0,0 l/m 0,7 km/h (0 Bft) 0 min 4,6 km/h (1 Bft)
17.11.2009 19:20 15,4 C 9,7 C 0,0 UV-I 0,0 C 63 % 89 % 0 % 1012,3 hPa 0,0 l/m 0,7 km/h (0 Bft) 0 min 4,6 km/h (1 Bft)
17.11.2009 19:22 15,6 C 9,7 C 0,0 UV-I 0,0 C 63 % 89 % 0 % 1012,3 hPa 0,0 l/m 1,0 km/h (0 Bft) 0 min 0,0 km/h (0 Bft)
17.11.2009 19:24 15,6 C 9,7 C 0,0 UV-I 0,0 C 63 % 89 % 0 % 1012,3 hPa 0,0 l/m 1,0 km/h (0 Bft) 0 min 2,6 km/h (1 Bft)
17.11.2009 19:26 15,6 C 9,7 C 0,0 UV-I 0,0 C 63 % 89 % 0 % 1012,3 hPa 0,0 l/m 1,2 km/h (1 Bft) 0 min 3,1 km/h (1 Bft)
17.11.2009 19:28 15,6 C 9,7 C 0,0 UV-I 0,0 C 63 % 89 % 0 % 1012,3 hPa 0,0 l/m 1,2 km/h (1 Bft) 0 min 0,0 km/h (0 Bft)
17.11.2009 19:30 15,4 C 9,6 C 0,0 UV-I 0,0 C 63 % 90 % 0 % 1012,3 hPa 0,0 l/m 0,7 km/h (0 Bft) 0 min 0,0 km/h (0 Bft)
17.11.2009 19:32 15,6 C 9,6 C 0,0 UV-I 0,0 C 63 % 90 % 0 % 1012,3 hPa 0,0 l/m 0,7 km/h (0 Bft) 0 min 0,0 km/h (0 Bft)
17.11.2009 19:34 15,4 C 9,6 C 0,0 UV-I 0,0 C 63 % 90 % 0 % 1012,7 hPa 0,0 l/m 0,5 km/h (0 Bft) 0 min 0,0 km/h (0 Bft)
17.11.2009 19:36 15,6 C 9,7 C 0,0 UV-I 0,0 C 63 % 90 % 0 % 1012,7 hPa 0,0 l/m 0,5 km/h (0 Bft) 0 min 6,5 km/h (2 Bft)
17.11.2009 19:38 15,4 C 9,7 C 0,0 UV-I 0,0 C 63 % 90 % 0 % 1012,7 hPa 0,0 l/m 0,2 km/h (0 Bft) 0 min 6,5 km/h (2 Bft)
17.11.2009 19:40 15,6 C 9,7 C 0,0 UV-I 0,0 C 63 % 90 % 0 % 1012,7 hPa 0,0 l/m 0,7 km/h (0 Bft) 0 min 4,3 km/h (1 Bft)
17.11.2009 19:42 15,4 C 9,7 C 0,0 UV-I 0,0 C 63 % 90 % 0 % 1012,7 hPa 0,0 l/m 0,7 km/h (0 Bft) 0 min 5,8 km/h (2 Bft)
17.11.2009 19:44 15,4 C 9,6 C 0,0 UV-I 0,0 C 63 % 90 % 0 % 1012,7 hPa 0,0 l/m 1,2 km/h (1 Bft) 0 min 4,6 km/h (1 Bft)
17.11.2009 19:46 15,6 C 9,6 C 0,0 UV-I 0,0 C 63 % 90 % 0 % 1012,7 hPa 0,0 l/m 1,4 km/h (1 Bft) 0 min 0,0 km/h (0 Bft)
17.11.2009 19:48 15,6 C 9,6 C 0,0 UV-I 0,0 C 63 % 90 % 0 % 1012,7 hPa 0,0 l/m 1,4 km/h (1 Bft) 0 min 5,8 km/h (2 Bft)
17.11.2009 19:50 15,6 C 9,6 C 0,0 UV-I 0,0 C 63 % 90 % 0 % 1012,7 hPa 0,0 l/m 1,4 km/h (1 Bft) 0 min 5,8 km/h (2 Bft)
17.11.2009 19:52 15,6 C 9,6 C 0,0 UV-I 0,0 C 63 % 90 % 0 % 1012,7 hPa 0,0 l/m 1,4 km/h (1 Bft) 0 min 6,7 km/h (2 Bft)
17.11.2009 19:54 15,6 C 9,7 C 0,0 UV-I 0,0 C 63 % 90 % 0 % 1012,8 hPa 0,0 l/m 1,2 km/h (1 Bft) 0 min 2,4 km/h (1 Bft)
17.11.2009 19:56 15,6 C 9,7 C 0,0 UV-I 0,0 C 64 % 91 % 0 % 1012,8 hPa 0,0 l/m 1,2 km/h (1 Bft) 0 min 6,3 km/h (2 Bft)
17.11.2009 19:58 15,6 C 9,7 C 0,0 UV-I 0,0 C 63 % 91 % 0 % 1012,8 hPa 0,0 l/m 1,9 km/h (1 Bft) 0 min 7,2 km/h (2 Bft)
17.11.2009 20:00 15,6 C 9,8 C 0,0 UV-I 0,0 C 63 % 91 % 0 % 1012,8 hPa 0,0 l/m 2,4 km/h (1 Bft) 0 min 7,2 km/h (2 Bft)
17.11.2009 20:02 15,4 C 9,9 C 0,0 UV-I 0,0 C 64 % 91 % 0 % 1012,8 hPa 0,0 l/m 3,1 km/h (1 Bft) 0 min 9,9 km/h (2 Bft)
17.11.2009 20:04 15,4 C 9,9 C 0,0 UV-I 0,0 C 64 % 91 % 0 % 1012,8 hPa 0,0 l/m 2,9 km/h (1 Bft) 0 min 9,9 km/h (2 Bft)
17.11.2009 20:06 15,4 C 9,8 C 0,0 UV-I 0,0 C 64 % 91 % 0 % 1012,8 hPa 0,0 l/m 3,6 km/h (1 Bft) 0 min 3,1 km/h (1 Bft)
17.11.2009 20:08 15,4 C 9,9 C 0,0 UV-I 0,0 C 64 % 91 % 0 % 1012,8 hPa 0,0 l/m 3,4 km/h (1 Bft) 0 min 5,3 km/h (1 Bft)
17.11.2009 20:10 15,4 C 9,8 C 0,0 UV-I 0,0 C 64 % 91 % 0 % 1012,8 hPa 0,0 l/m 3,8 km/h (1 Bft) 0 min 8,4 km/h (2 Bft)
17.11.2009 20:12 15,5 C 9,9 C 0,0 UV-I 0,0 C 64 % 91 % 0 % 1012,8 hPa 0,0 l/m 3,8 km/h (1 Bft) 0 min 10,1 km/h (2 Bft)
17.11.2009 20:14 15,5 C 10,0 C 0,0 UV-I 0,0 C 64 % 91 % 0 % 1013,2 hPa 0,0 l/m 4,3 km/h (1 Bft) 0 min 10,1 km/h (2 Bft)
17.11.2009 20:16 15,5 C 10,0 C 0,0 UV-I 0,0 C 64 % 91 % 0 % 1013,2 hPa 0,0 l/m 4,8 km/h (1 Bft) 0 min 14,0 km/h (3 Bft)
17.11.2009 20:17 15,5 C 10,0 C 0,0 UV-I 0,0 C 64 % 91 % 0 % 1013,2 hPa 0,0 l/m 5,1 km/h (1 Bft) 0 min 8,7 km/h (2 Bft)
17.11.2009 20:20 15,3 C 10,1 C 0,0 UV-I 0,0 C 64 % 91 % 0 % 1013,2 hPa 0,0 l/m 5,3 km/h (1 Bft) 0 min 8,7 km/h (2 Bft)
17.11.2009 20:22 15,3 C 10,0 C 0,0 UV-I 0,0 C 64 % 91 % 0 % 1013,2 hPa 0,0 l/m 5,3 km/h (1 Bft) 0 min 6,5 km/h (2 Bft)
17.11.2009 20:24 15,3 C 10,1 C 0,0 UV-I 0,0 C 64 % 91 % 0 % 1013,2 hPa 0,0 l/m 5,8 km/h (2 Bft) 0 min 11,5 km/h (2 Bft)
17.11.2009 20:26 15,3 C 10,1 C 0,0 UV-I 0,0 C 64 % 91 % 0 % 1013,2 hPa 0,0 l/m 5,8 km/h (2 Bft) 0 min 11,5 km/h (2 Bft)
17.11.2009 20:28 15,3 C 10,1 C 0,0 UV-I 0,0 C 64 % 91 % 0 % 1013,2 hPa 0,0 l/m 6,0 km/h (2 Bft) 0 min 9,9 km/h (2 Bft)
17.11.2009 20:30 15,4 C 10,1 C 0,0 UV-I 0,0 C 64 % 90 % 0 % 1013,2 hPa 0,0 l/m 5,5 km/h (1 Bft) 0 min 9,9 km/h (2 Bft)
17.11.2009 20:36 15,4 C 10,1 C 0,0 UV-I 0,0 C 64 % 90 % 0 % 1013,4 hPa 0,0 l/m 5,3 km/h (1 Bft) 0 min 11,5 km/h (2 Bft)
17.11.2009 20:38 15,4 C 10,1 C 0,0 UV-I 0,0 C 64 % 90 % 0 % 1013,4 hPa 0,0 l/m 5,3 km/h (1 Bft) 0 min 11,5 km/h (2 Bft)
17.11.2009 20:40 15,4 C 10,1 C 0,0 UV-I 0,0 C 64 % 90 % 0 % 1013,4 hPa 0,0 l/m 5,3 km/h (1 Bft) 0 min 6,0 km/h (2 Bft)
17.11.2009 20:42 15,4 C 10,3 C 0,0 UV-I 0,0 C 64 % 90 % 0 % 1013,4 hPa 0,0 l/m 5,8 km/h (2 Bft) 0 min 7,7 km/h (2 Bft)
17.11.2009 20:44 15,4 C 10,2 C 0,0 UV-I 0,0 C 64 % 89 % 0 % 1013,4 hPa 0,0 l/m 5,8 km/h (2 Bft) 0 min 7,7 km/h (2 Bft)
17.11.2009 20:46 15,2 C 10,2 C 0,0 UV-I 0,0 C 64 % 89 % 0 % 1013,4 hPa 0,0 l/m 6,0 km/h (2 Bft) 0 min 8,9 km/h (2 Bft)
17.11.2009 20:50 15,2 C 10,2 C 0,0 UV-I 0,0 C 64 % 89 % 0 % 1013,4 hPa 0,0 l/m 5,8 km/h (2 Bft) 0 min 8,9 km/h (2 Bft)
17.11.2009 20:52 15,2 C 10,2 C 0,0 UV-I 0,0 C 64 % 89 % 0 % 1013,4 hPa 0,0 l/m 5,5 km/h (1 Bft) 0 min 4,8 km/h (1 Bft)
17.11.2009 20:54 15,2 C 10,2 C 0,0 UV-I 0,0 C 64 % 88 % 0 % 1013,8 hPa 0,0 l/m 5,3 km/h (1 Bft) 0 min 9,9 km/h (2 Bft)
17.11.2009 20:56 15,2 C 10,2 C 0,0 UV-I 0,0 C 64 % 88 % 0 % 1013,8 hPa 0,0 l/m 5,3 km/h (1 Bft) 0 min 9,9 km/h (2 Bft)
17.11.2009 20:58 15,2 C 10,2 C 0,0 UV-I 0,0 C 64 % 88 % 0 % 1013,8 hPa 0,0 l/m 5,5 km/h (1 Bft) 0 min 8,9 km/h (2 Bft)
17.11.2009 21:00 15,3 C 10,2 C 0,0 UV-I 0,0 C 63 % 88 % 0 % 1013,8 hPa 0,0 l/m 5,3 km/h (1 Bft) 0 min 6,3 km/h (2 Bft)
17.11.2009 21:02 15,3 C 10,2 C 0,0 UV-I 0,0 C 63 % 88 % 0 % 1013,8 hPa 0,0 l/m 6,0 km/h (2 Bft) 0 min 10,1 km/h (2 Bft)
17.11.2009 21:04 15,3 C 10,3 C 0,0 UV-I 0,0 C 63 % 88 % 0 % 1013,8 hPa 0,0 l/m 6,3 km/h (2 Bft) 0 min 10,1 km/h (2 Bft)
17.11.2009 21:06 15,3 C 10,3 C 0,0 UV-I 0,0 C 63 % 88 % 0 % 1013,8 hPa 0,0 l/m 6,0 km/h (2 Bft) 0 min 7,2 km/h (2 Bft)
17.11.2009 21:10 15,1 C 10,3 C 0,0 UV-I 0,0 C 63 % 88 % 0 % 1013,8 hPa 0,0 l/m 6,0 km/h (2 Bft) 0 min 7,2 km/h (2 Bft)
17.11.2009 21:12 15,1 C 10,3 C 0,0 UV-I 0,0 C 63 % 88 % 0 % 1013,8 hPa 0,0 l/m 5,8 km/h (2 Bft) 0 min 6,5 km/h (2 Bft)
17.11.2009 21:14 15,1 C 10,2 C 0,0 UV-I 0,0 C 63 % 88 % 0 % 1014,1 hPa 0,0 l/m 5,5 km/h (1 Bft) 0 min 6,5 km/h (2 Bft)
17.11.2009 21:16 15,1 C 10,1 C 0,0 UV-I 0,0 C 63 % 87 % 0 % 1014,1 hPa 0,0 l/m 5,3 km/h (1 Bft) 0 min 9,6 km/h (2 Bft)
17.11.2009 21:18 15,1 C 10,1 C 0,0 UV-I 0,0 C 63 % 87 % 0 % 1014,1 hPa 0,0 l/m 4,8 km/h (1 Bft) 0 min 9,6 km/h (2 Bft)
17.11.2009 21:20 15,2 C 10,1 C 0,0 UV-I 0,0 C 63 % 87 % 0 % 1014,1 hPa 0,0 l/m 5,3 km/h (1 Bft) 0 min 9,1 km/h (2 Bft)
17.11.2009 21:22 15,2 C 10,1 C 0,0 UV-I 0,0 C 63 % 87 % 0 % 1014,1 hPa 0,0 l/m 5,1 km/h (1 Bft) 0 min 10,6 km/h (2 Bft)
17.11.2009 21:24 15,2 C 10,0 C 0,0 UV-I 0,0 C 63 % 87 % 0 % 1014,1 hPa 0,0 l/m 5,3 km/h (1 Bft) 0 min 12,5 km/h (3 Bft)
17.11.2009 21:26 15,1 C 10,1 C 0,0 UV-I 0,0 C 63 % 87 % 0 % 1014,1 hPa 0,0 l/m 5,5 km/h (1 Bft) 0 min 10,6 km/h (2 Bft)
17.11.2009 21:28 15,2 C 10,0 C 0,0 UV-I 0,0 C 63 % 87 % 0 % 1014,1 hPa 0,0 l/m 5,5 km/h (1 Bft) 0 min 6,0 km/h (2 Bft)
17.11.2009 21:30 15,2 C 10,0 C 0,0 UV-I 0,0 C 63 % 87 % 0 % 1014,1 hPa 0,0 l/m 5,3 km/h (1 Bft) 0 min 6,0 km/h (2 Bft)
17.11.2009 21:32 15,2 C 10,0 C 0,0 UV-I 0,0 C 63 % 87 % 0 % 1014,1 hPa 0,0 l/m 5,3 km/h (1 Bft) 0 min 7,2 km/h (2 Bft)
17.11.2009 21:34 15,2 C 10,1 C 0,0 UV-I 0,0 C 63 % 87 % 0 % 1014,1 hPa 0,0 l/m 5,1 km/h (1 Bft) 0 min 7,2 km/h (2 Bft)
17.11.2009 21:36 15,2 C 10,1 C 0,0 UV-I 0,0 C 63 % 87 % 0 % 1014,1 hPa 0,0 l/m 4,8 km/h (1 Bft) 0 min 6,5 km/h (2 Bft)
17.11.2009 21:38 15,2 C 10,0 C 0,0 UV-I 0,0 C 63 % 87 % 0 % 1014,1 hPa 0,0 l/m 4,8 km/h (1 Bft) 0 min 6,7 km/h (2 Bft)
17.11.2009 21:40 15,1 C 10,0 C 0,0 UV-I 0,0 C 63 % 87 % 0 % 1014,1 hPa 0,0 l/m 4,8 km/h (1 Bft) 0 min 6,5 km/h (2 Bft)
17.11.2009 21:42 15,1 C 9,9 C 0,0 UV-I 0,0 C 63 % 87 % 0 % 1014,1 hPa 0,0 l/m 4,8 km/h (1 Bft) 0 min 6,0 km/h (2 Bft)
17.11.2009 21:44 15,1 C 9,9 C 0,0 UV-I 0,0 C 62 % 87 % 0 % 1014,1 hPa 0,0 l/m 4,6 km/h (1 Bft) 0 min 6,0 km/h (2 Bft)
17.11.2009 21:46 15,1 C 9,9 C 0,0 UV-I 0,0 C 62 % 87 % 0 % 1014,1 hPa 0,0 l/m 4,6 km/h (1 Bft) 0 min 12,8 km/h (3 Bft)
17.11.2009 21:48 15,1 C 9,8 C 0,0 UV-I 0,0 C 63 % 87 % 0 % 1014,1 hPa 0,0 l/m 4,8 km/h (1 Bft) 0 min 12,8 km/h (3 Bft)
17.11.2009 21:50 15,1 C 9,8 C 0,0 UV-I 0,0 C 62 % 87 % 0 % 1014,1 hPa 0,0 l/m 5,1 km/h (1 Bft) 0 min 5,5 km/h (1 Bft)
17.11.2009 21:52 15,1 C 9,8 C 0,0 UV-I 0,0 C 62 % 87 % 0 % 1014,1 hPa 0,0 l/m 5,1 km/h (1 Bft) 0 min 6,3 km/h (2 Bft)
17.11.2009 21:54 15,1 C 9,9 C 0,0 UV-I 0,0 C 62 % 87 % 0 % 1014,4 hPa 0,0 l/m 5,3 km/h (1 Bft) 0 min 8,4 km/h (2 Bft)
17.11.2009 21:56 15,1 C 9,9 C 0,0 UV-I 0,0 C 62 % 87 % 0 % 1014,4 hPa 0,0 l/m 5,3 km/h (1 Bft) 0 min 8,4 km/h (2 Bft)
17.11.2009 21:58 15,1 C 9,9 C 0,0 UV-I 0,0 C 62 % 87 % 0 % 1014,4 hPa 0,0 l/m 4,6 km/h (1 Bft) 0 min 4,8 km/h (1 Bft)
17.11.2009 22:00 15,1 C 9,7 C 0,0 UV-I 0,0 C 62 % 87 % 0 % 1014,4 hPa 0,0 l/m 4,1 km/h (1 Bft) 0 min 4,1 km/h (1 Bft)
17.11.2009 22:02 15,1 C 9,7 C 0,0 UV-I 0,0 C 62 % 87 % 0 % 1014,4 hPa 0,0 l/m 3,8 km/h (1 Bft) 0 min 4,1 km/h (1 Bft)
17.11.2009 22:04 15,1 C 9,7 C 0,0 UV-I 0,0 C 62 % 87 % 0 % 1014,4 hPa 0,0 l/m 3,1 km/h (1 Bft) 0 min 3,1 km/h (1 Bft)
17.11.2009 22:06 14,9 C 9,7 C 0,0 UV-I 0,0 C 62 % 87 % 0 % 1014,4 hPa 0,0 l/m 3,1 km/h (1 Bft) 0 min 7,0 km/h (2 Bft)
17.11.2009 22:08 14,9 C 9,6 C 0,0 UV-I 0,0 C 62 % 87 % 0 % 1014,4 hPa 0,0 l/m 3,1 km/h (1 Bft) 0 min 7,0 km/h (2 Bft)
17.11.2009 22:10 15,1 C 9,6 C 0,0 UV-I 0,0 C 62 % 87 % 0 % 1014,4 hPa 0,0 l/m 3,8 km/h (1 Bft) 0 min 8,7 km/h (2 Bft)
17.11.2009 22:12 14,9 C 9,7 C 0,0 UV-I 0,0 C 62 % 87 % 0 % 1014,4 hPa 0,0 l/m 4,1 km/h (1 Bft) 0 min 6,5 km/h (2 Bft)
17.11.2009 22:14 15,0 C 9,6 C 0,0 UV-I 0,0 C 62 % 87 % 0 % 1014,6 hPa 0,0 l/m 4,6 km/h (1 Bft) 0 min 6,7 km/h (2 Bft)
17.11.2009 22:16 14,9 C 9,6 C 0,0 UV-I 0,0 C 62 % 87 % 0 % 1014,6 hPa 0,0 l/m 4,8 km/h (1 Bft) 0 min 6,7 km/h (2 Bft)
17.11.2009 22:20 14,9 C 9,7 C 0,0 UV-I 0,0 C 62 % 88 % 0 % 1014,6 hPa 0,0 l/m 4,8 km/h (1 Bft) 0 min 8,2 km/h (2 Bft)
17.11.2009 22:22 14,9 C 9,6 C 0,0 UV-I 0,0 C 62 % 88 % 0 % 1014,6 hPa 0,0 l/m 4,6 km/h (1 Bft) 0 min 8,2 km/h (2 Bft)
17.11.2009 22:24 15,0 C 9,6 C 0,0 UV-I 0,0 C 62 % 88 % 0 % 1014,6 hPa 0,0 l/m 4,1 km/h (1 Bft) 0 min 5,1 km/h (1 Bft)
17.11.2009 22:26 15,0 C 9,6 C 0,0 UV-I 0,0 C 62 % 88 % 0 % 1014,6 hPa 0,0 l/m 4,1 km/h (1 Bft) 0 min 4,6 km/h (1 Bft)
17.11.2009 22:28 15,0 C 9,5 C 0,0 UV-I 0,0 C 62 % 88 % 0 % 1014,6 hPa 0,0 l/m 3,8 km/h (1 Bft) 0 min 3,8 km/h (1 Bft)
17.11.2009 22:30 15,0 C 9,5 C 0,0 UV-I 0,0 C 62 % 88 % 0 % 1014,6 hPa 0,0 l/m 3,8 km/h (1 Bft) 0 min 3,8 km/h (1 Bft)
17.11.2009 22:32 15,0 C 9,5 C 0,0 UV-I 0,0 C 62 % 88 % 0 % 1014,6 hPa 0,0 l/m 3,8 km/h (1 Bft) 0 min 6,0 km/h (2 Bft)
17.11.2009 22:34 15,0 C 9,5 C 0,0 UV-I 0,0 C 62 % 88 % 0 % 1014,9 hPa 0,0 l/m 3,8 km/h (1 Bft) 0 min 6,0 km/h (2 Bft)
17.11.2009 22:38 15,0 C 9,4 C 0,0 UV-I 0,0 C 62 % 88 % 0 % 1014,9 hPa 0,0 l/m 3,4 km/h (1 Bft) 0 min 4,6 km/h (1 Bft)
17.11.2009 22:40 15,0 C 9,5 C 0,0 UV-I 0,0 C 62 % 88 % 0 % 1014,9 hPa 0,0 l/m 3,4 km/h (1 Bft) 0 min 7,2 km/h (2 Bft)
17.11.2009 22:42 15,0 C 9,5 C 0,0 UV-I 0,0 C 62 % 88 % 0 % 1014,9 hPa 0,0 l/m 3,8 km/h (1 Bft) 0 min 10,6 km/h (2 Bft)
17.11.2009 22:44 15,0 C 9,5 C 0,0 UV-I 0,0 C 62 % 88 % 0 % 1014,9 hPa 0,0 l/m 4,1 km/h (1 Bft) 0 min 10,6 km/h (2 Bft)
17.11.2009 22:46 15,0 C 9,5 C 0,0 UV-I 0,0 C 62 % 88 % 0 % 1014,9 hPa 0,0 l/m 4,1 km/h (1 Bft) 0 min 7,2 km/h (2 Bft)
17.11.2009 22:50 15,0 C 9,4 C 0,0 UV-I 0,0 C 62 % 88 % 0 % 1014,9 hPa 0,0 l/m 5,1 km/h (1 Bft) 0 min 3,8 km/h (1 Bft)
17.11.2009 22:54 14,8 C 9,4 C 0,0 UV-I 0,0 C 63 % 89 % 0 % 1015,3 hPa 0,0 l/m 5,1 km/h (1 Bft) 0 min 8,2 km/h (2 Bft)
17.11.2009 22:56 14,8 C 9,3 C 0,0 UV-I 0,0 C 62 % 89 % 0 % 1015,3 hPa 0,0 l/m 4,8 km/h (1 Bft) 0 min 6,0 km/h (2 Bft)
17.11.2009 22:58 15,0 C 9,4 C 0,0 UV-I 0,0 C 63 % 89 % 0 % 1015,3 hPa 0,0 l/m 4,6 km/h (1 Bft) 0 min 7,2 km/h (2 Bft)
17.11.2009 23:00 15,0 C 9,4 C 0,0 UV-I 0,0 C 63 % 89 % 0 % 1015,3 hPa 0,0 l/m 4,8 km/h (1 Bft) 0 min 8,9 km/h (2 Bft)
17.11.2009 23:04 14,8 C 9,4 C 0,0 UV-I 0,0 C 63 % 89 % 0 % 1015,3 hPa 0,0 l/m 4,6 km/h (1 Bft) 0 min 8,9 km/h (2 Bft)
17.11.2009 23:08 14,8 C 9,4 C 0,0 UV-I 0,0 C 63 % 89 % 0 % 1015,3 hPa 0,0 l/m 4,3 km/h (1 Bft) 0 min 6,5 km/h (2 Bft)
17.11.2009 23:10 14,8 C 9,3 C 0,0 UV-I 0,0 C 63 % 89 % 0 % 1015,3 hPa 0,0 l/m 5,1 km/h (1 Bft) 0 min 14,0 km/h (3 Bft)
17.11.2009 23:12 14,8 C 9,3 C 0,0 UV-I 0,0 C 63 % 89 % 0 % 1015,3 hPa 0,0 l/m 4,6 km/h (1 Bft) 0 min 14,0 km/h (3 Bft)
17.11.2009 23:14 14,8 C 9,3 C 0,0 UV-I 0,0 C 63 % 89 % 0 % 1015,3 hPa 0,0 l/m 4,6 km/h (1 Bft) 0 min 3,8 km/h (1 Bft)
17.11.2009 23:16 14,8 C 9,3 C 0,0 UV-I 0,0 C 63 % 90 % 0 % 1015,3 hPa 0,0 l/m 5,3 km/h (1 Bft) 0 min 9,4 km/h (2 Bft)
17.11.2009 23:18 14,8 C 9,3 C 0,0 UV-I 0,0 C 63 % 90 % 0 % 1015,3 hPa 0,0 l/m 5,5 km/h (1 Bft) 0 min 9,4 km/h (2 Bft)
17.11.2009 23:20 14,8 C 9,3 C 0,0 UV-I 0,0 C 63 % 90 % 0 % 1015,3 hPa 0,0 l/m 5,1 km/h (1 Bft) 0 min 2,4 km/h (1 Bft)
17.11.2009 23:22 14,8 C 9,3 C 0,0 UV-I 0,0 C 63 % 90 % 0 % 1015,3 hPa 0,0 l/m 4,6 km/h (1 Bft) 0 min 2,4 km/h (1 Bft)
17.11.2009 23:24 14,8 C 9,3 C 0,0 UV-I 0,0 C 63 % 90 % 0 % 1015,3 hPa 0,0 l/m 4,8 km/h (1 Bft) 0 min 4,6 km/h (1 Bft)
17.11.2009 23:26 14,8 C 9,3 C 0,0 UV-I 0,0 C 63 % 90 % 0 % 1015,3 hPa 0,0 l/m 4,3 km/h (1 Bft) 0 min 6,7 km/h (2 Bft)
17.11.2009 23:28 14,8 C 9,3 C 0,0 UV-I 0,0 C 63 % 90 % 0 % 1015,3 hPa 0,0 l/m 3,8 km/h (1 Bft) 0 min 6,7 km/h (2 Bft)
17.11.2009 23:30 14,8 C 9,3 C 0,0 UV-I 0,0 C 63 % 90 % 0 % 1015,3 hPa 0,0 l/m 4,1 km/h (1 Bft) 0 min 7,9 km/h (2 Bft)
17.11.2009 23:32 14,8 C 9,3 C 0,0 UV-I 0,0 C 63 % 90 % 0 % 1015,3 hPa 0,0 l/m 4,1 km/h (1 Bft) 0 min 7,9 km/h (2 Bft)
17.11.2009 23:34 14,8 C 9,3 C 0,0 UV-I 0,0 C 63 % 90 % 0 % 1015,5 hPa 0,0 l/m 4,1 km/h (1 Bft) 0 min 8,7 km/h (2 Bft)
17.11.2009 23:36 14,8 C 9,3 C 0,0 UV-I 0,0 C 63 % 90 % 0 % 1015,5 hPa 0,0 l/m 4,6 km/h (1 Bft) 0 min 8,7 km/h (2 Bft)
17.11.2009 23:38 14,9 C 9,3 C 0,0 UV-I 0,0 C 63 % 90 % 0 % 1015,5 hPa 0,0 l/m 4,1 km/h (1 Bft) 0 min 4,6 km/h (1 Bft)
17.11.2009 23:42 14,9 C 9,3 C 0,0 UV-I 0,0 C 63 % 90 % 0 % 1015,5 hPa 0,0 l/m 3,8 km/h (1 Bft) 0 min 5,1 km/h (1 Bft)
17.11.2009 23:44 14,9 C 9,3 C 0,0 UV-I 0,0 C 63 % 90 % 0 % 1015,5 hPa 0,0 l/m 3,6 km/h (1 Bft) 0 min 9,4 km/h (2 Bft)
17.11.2009 23:46 14,9 C 9,3 C 0,0 UV-I 0,0 C 63 % 90 % 0 % 1015,5 hPa 0,0 l/m 3,6 km/h (1 Bft) 0 min 9,4 km/h (2 Bft)
17.11.2009 23:48 14,8 C 9,3 C 0,0 UV-I 0,0 C 63 % 90 % 0 % 1015,5 hPa 0,0 l/m 3,4 km/h (1 Bft) 0 min 7,2 km/h (2 Bft)
17.11.2009 23:50 14,9 C 9,3 C 0,0 UV-I 0,0 C 63 % 90 % 0 % 1015,5 hPa 0,0 l/m 3,8 km/h (1 Bft) 0 min 7,2 km/h (2 Bft)
17.11.2009 23:52 14,9 C 9,3 C 0,0 UV-I 0,0 C 63 % 90 % 0 % 1015,5 hPa 0,0 l/m 4,1 km/h (1 Bft) 0 min 5,1 km/h (1 Bft)
17.11.2009 23:54 14,9 C 9,4 C 0,0 UV-I 0,0 C 63 % 90 % 0 % 1015,5 hPa 0,0 l/m 4,3 km/h (1 Bft) 0 min 7,5 km/h (2 Bft)
17.11.2009 23:56 14,9 C 9,4 C 0,0 UV-I 0,0 C 63 % 90 % 0 % 1015,5 hPa 0,0 l/m 4,6 km/h (1 Bft) 0 min 7,5 km/h (2 Bft)
_ Min-Zeit 22:54 22:56 00:02 00:02 12:54 03:06 00:02 02:14 - 00:02 - 00:04
Minimum _ 14,8 C 9,3 C 0,0 UV-I 0,0 C 58 % 72 % 0 % 1008,1 hPa - 0,0 km/h (0 Bft) - 0,0 km/h (0 Bft)
_ Max-Zeit 14:12 14:58 14:04 12:36 19:56 19:56 12:36 23:34 18:10 10:10 00:02 11:08
Maximum _ 16,4 C 12,8 C 1,0 UV-I 0,5 C 64 % 91 % 14 % 1015,5 hPa 0,3 l/m 8,2 km/h
O-NO (2 Bft)
0 min 20,9 km/h
N-NO (4 Bft)
Durchschnitt _ 15,9 C 11,4 C 0,1 UV-I 0,0 C 61 % 81 % 1 % 1010,3 hPa #2,3 l/m 3,2 km/h (1 Bft) #0 min. 6,0 km/h (2 Bft)
© 2012 W. Hausmann